Observation data for Caprock Canyons on 01/20/2019      Previous  Date  Next       Current Mesonet Observations  Soil Data  Daily Summary Page  Observations in Plain Language
KQU1 200600Z 17006KT M02/M06 A3032 RMK A01 T10211056  RH  076%=      5-min Rain = 0
KQU1 200601Z 17005KT M02/M06 A3032 RMK A01 T10211057  RH  076%=      5-min Rain = 0
KQU1 200602Z 17005KT M02/M06 A3032 RMK A01 T10211057  RH  076%=      5-min Rain = 0
KQU1 200603Z 17005KT M02/M06 A3032 RMK A01 T10211058  RH  076%=      5-min Rain = 0
KQU1 200604Z 17005KT M02/M06 A3032 RMK A01 T10211058  RH  076%=      5-min Rain = 0
KQU1 200605Z 17005KT M02/M06 A3032 RMK A01 T10211059  RH  075%=      5-min Rain = 0
KQU1 200606Z 17005KT M02/M06 A3033 RMK A01 T10211059  RH  075%=      5-min Rain = 0
KQU1 200607Z 18005KT M02/M06 A3033 RMK A01 T10221060  RH  075%=      5-min Rain = 0
KQU1 200608Z 18005KT M02/M06 A3033 RMK A01 T10221060  RH  075%=      5-min Rain = 0
KQU1 200609Z 18005KT M02/M06 A3033 RMK A01 T10221060  RH  075%=      5-min Rain = 0
KQU1 200610Z 18005KT M02/M06 A3033 RMK A01 T10221060  RH  075%=      5-min Rain = 0
KQU1 200611Z 17005KT M02/M06 A3033 RMK A01 T10221060  RH  075%=      5-min Rain = 0
KQU1 200612Z 17005KT M02/M06 A3033 RMK A01 T10211060  RH  075%=      5-min Rain = 0
KQU1 200613Z 17006KT M02/M06 A3033 RMK A01 T10201060  RH  075%=      5-min Rain = 0
KQU1 200614Z 16006KT M02/M06 A3033 RMK A01 T10201060  RH  074%=      5-min Rain = 0
KQU1 200615Z 16006KT M02/M06 A3032 RMK A01 T10201061  RH  074%=      5-min Rain = 0
KQU1 200616Z 16006KT M02/M06 A3032 RMK A01 T10201061  RH  074%=      5-min Rain = 0
KQU1 200617Z 16006KT M02/M06 A3032 RMK A01 T10211062  RH  074%=      5-min Rain = 0
KQU1 200618Z 16006KT M02/M06 A3032 RMK A01 T10221062  RH  074%=      5-min Rain = 0
KQU1 200619Z 16006KT M02/M06 A3031 RMK A01 T10221063  RH  074%=      5-min Rain = 0
KQU1 200620Z 15007KT M02/M06 A3031 RMK A01 T10221063  RH  074%=      5-min Rain = 0
KQU1 200621Z 15007KT M02/M06 A3031 RMK A01 T10231063  RH  074%=      5-min Rain = 0
KQU1 200622Z 16007KT M02/M06 A3031 RMK A01 T10241063  RH  074%=      5-min Rain = 0
KQU1 200623Z 16007KT M02/M06 A3032 RMK A01 T10241063  RH  074%=      5-min Rain = 0
KQU1 200624Z 17007KT M02/M06 A3032 RMK A01 T10231062  RH  075%=      5-min Rain = 0
KQU1 200625Z 17007KT M02/M06 A3032 RMK A01 T10231062  RH  075%=      5-min Rain = 0
KQU1 200626Z 18007KT M02/M06 A3032 RMK A01 T10231062  RH  075%=      5-min Rain = 0
KQU1 200627Z 17008KT M02/M06 A3032 RMK A01 T10231062  RH  075%=      5-min Rain = 0
KQU1 200628Z 17008KT M02/M06 A3032 RMK A01 T10241062  RH  075%=      5-min Rain = 0
KQU1 200629Z 17008KT M02/M06 A3032 RMK A01 T10241062  RH  075%=      5-min Rain = 0
KQU1 200630Z 17008KT M02/M06 A3032 RMK A01 T10241063  RH  075%=      5-min Rain = 0
KQU1 200631Z 17007KT M03/M06 A3032 RMK A01 T10251063  RH  075%=      5-min Rain = 0
KQU1 200632Z 18007KT M03/M06 A3032 RMK A01 T10251063  RH  075%=      5-min Rain = 0
KQU1 200633Z 18007KT M03/M06 A3031 RMK A01 T10261063  RH  075%=      5-min Rain = 0
KQU1 200634Z 18008KT M03/M06 A3031 RMK A01 T10261063  RH  075%=      5-min Rain = 0
KQU1 200635Z 18008KT M03/M06 A3031 RMK A01 T10261063  RH  076%=      5-min Rain = 0
KQU1 200636Z 18009KT M03/M06 A3031 RMK A01 T10261063  RH  076%=      5-min Rain = 0
KQU1 200637Z 18009KT M03/M06 A3031 RMK A01 T10261063  RH  076%=      5-min Rain = 0
KQU1 200638Z 19009KT M03/M06 A3031 RMK A01 T10261063  RH  076%=      5-min Rain = 0
KQU1 200639Z 19009KT M03/M06 A3031 RMK A01 T10261063  RH  076%=      5-min Rain = 0
KQU1 200640Z 19009KT M03/M06 A3031 RMK A01 T10271063  RH  076%=      5-min Rain = 0
KQU1 200641Z 18009KT M03/M06 A3031 RMK A01 T10261062  RH  076%=      5-min Rain = 0
KQU1 200642Z 18009KT M03/M06 A3031 RMK A01 T10261062  RH  076%=      5-min Rain = 0
KQU1 200643Z 18008KT M03/M06 A3031 RMK A01 T10261062  RH  076%=      5-min Rain = 0
KQU1 200644Z 18007KT M03/M06 A3031 RMK A01 T10261062  RH  076%=      5-min Rain = 0
KQU1 200645Z 18007KT M03/M06 A3031 RMK A01 T10271062  RH  077%=      5-min Rain = 0
KQU1 200646Z 18008KT M03/M06 A3031 RMK A01 T10271062  RH  077%=      5-min Rain = 0
KQU1 200647Z 18008KT M03/M06 A3031 RMK A01 T10281063  RH  077%=      5-min Rain = 0
KQU1 200648Z 18008KT M03/M06 A3032 RMK A01 T10281063  RH  077%=      5-min Rain = 0
KQU1 200649Z 18008KT M03/M06 A3032 RMK A01 T10291063  RH  077%=      5-min Rain = 0
KQU1 200650Z 18007KT M03/M06 A3031 RMK A01 T10291063  RH  077%=      5-min Rain = 0
KQU1 200651Z 18007KT M03/M06 A3031 RMK A01 T10301063  RH  077%=      5-min Rain = 0
KQU1 200652Z 18006KT M03/M06 A3031 RMK A01 T10301064  RH  078%=      5-min Rain = 0
KQU1 200653Z 18006KT M03/M06 A3031 RMK A01 T10311064  RH  078%=      5-min Rain = 0
KQU1 200654Z 18006KT M03/M06 A3031 RMK A01 T10311064  RH  078%=      5-min Rain = 0
KQU1 200655Z 18006KT M03/M06 A3031 RMK A01 T10321064  RH  078%=      5-min Rain = 0
KQU1 200656Z 18006KT M03/M06 A3032 RMK A01 T10321064  RH  078%=      5-min Rain = 0
KQU1 200657Z 18007KT M03/M07 A3031 RMK A01 T10331065  RH  079%=      5-min Rain = 0
KQU1 200658Z 18007KT M03/M07 A3031 RMK A01 T10331065  RH  079%=      5-min Rain = 0
KQU1 200659Z 18008KT M03/M07 A3031 RMK A01 T10341065  RH  079%=      5-min Rain = 0
KQU1 200700Z 18008KT M03/M06 A3031 RMK A01 T10341064  RH  079%=      5-min Rain = 0
KQU1 200701Z 18007KT M03/M06 A3031 RMK A01 T10341064  RH  080%=      5-min Rain = 0
KQU1 200702Z 18008KT M03/M06 A3031 RMK A01 T10341064  RH  080%=      5-min Rain = 0
KQU1 200703Z 19008KT M03/M06 A3031 RMK A01 T10341064  RH  080%=      5-min Rain = 0
KQU1 200704Z 19009KT M03/M06 A3031 RMK A01 T10331063  RH  080%=      5-min Rain = 0
KQU1 200705Z 19008KT M03/M06 A3031 RMK A01 T10331063  RH  080%=      5-min Rain = 0
KQU1 200706Z 19008KT M03/M06 A3031 RMK A01 T10331063  RH  080%=      5-min Rain = 0
KQU1 200707Z 19008KT M03/M06 A3032 RMK A01 T10321062  RH  080%=      5-min Rain = 0
KQU1 200708Z 19008KT M03/M06 A3032 RMK A01 T10321062  RH  080%=      5-min Rain = 0
KQU1 200709Z 19008KT M03/M06 A3032 RMK A01 T10311062  RH  079%=      5-min Rain = 0
KQU1 200710Z 19009KT M03/M06 A3032 RMK A01 T10311062  RH  079%=      5-min Rain = 0
KQU1 200711Z 19009KT M03/M06 A3032 RMK A01 T10301062  RH  079%=      5-min Rain = 0
KQU1 200712Z 19008KT M03/M06 A3031 RMK A01 T10301062  RH  079%=      5-min Rain = 0
KQU1 200713Z 19008KT M03/M06 A3031 RMK A01 T10301062  RH  078%=      5-min Rain = 0
KQU1 200714Z 19008KT M03/M06 A3031 RMK A01 T10301062  RH  078%=      5-min Rain = 0
KQU1 200715Z 19008KT M03/M06 A3031 RMK A01 T10301062  RH  078%=      5-min Rain = 0
KQU1 200716Z 19008KT M03/M06 A3031 RMK A01 T10301063  RH  078%=      5-min Rain = 0
KQU1 200717Z 19008KT M03/M06 A3032 RMK A01 T10301063  RH  078%=      5-min Rain = 0
KQU1 200718Z 19007KT M03/M06 A3032 RMK A01 T10301063  RH  078%=      5-min Rain = 0
KQU1 200719Z 19007KT M03/M06 A3032 RMK A01 T10301063  RH  078%=      5-min Rain = 0
KQU1 200720Z 19007KT M03/M06 A3032 RMK A01 T10301063  RH  077%=      5-min Rain = 0
KQU1 200721Z 19008KT M03/M06 A3032 RMK A01 T10301064  RH  077%=      5-min Rain = 0
KQU1 200722Z 19008KT M03/M06 A3032 RMK A01 T10301064  RH  077%=      5-min Rain = 0
KQU1 200723Z 19008KT M03/M07 A3032 RMK A01 T10311065  RH  077%=      5-min Rain = 0
KQU1 200724Z 18007KT M03/M07 A3031 RMK A01 T10321065  RH  078%=      5-min Rain = 0
KQU1 200725Z 18006KT M03/M07 A3031 RMK A01 T10321065  RH  078%=      5-min Rain = 0
KQU1 200726Z 18006KT M03/M07 A3031 RMK A01 T10321065  RH  078%=      5-min Rain = 0
KQU1 200727Z 18007KT M03/M07 A3031 RMK A01 T10321066  RH  078%=      5-min Rain = 0
KQU1 200728Z 18007KT M03/M07 A3032 RMK A01 T10331066  RH  078%=      5-min Rain = 0
KQU1 200729Z 18008KT M03/M07 A3032 RMK A01 T10331066  RH  078%=      5-min Rain = 0
KQU1 200730Z 18008KT M03/M07 A3032 RMK A01 T10331067  RH  078%=      5-min Rain = 0
KQU1 200731Z 18008KT M03/M07 A3032 RMK A01 T10341067  RH  078%=      5-min Rain = 0
KQU1 200732Z 18008KT M03/M07 A3032 RMK A01 T10341067  RH  078%=      5-min Rain = 0
KQU1 200733Z 18007KT M03/M07 A3032 RMK A01 T10341067  RH  078%=      5-min Rain = 0
KQU1 200734Z 19007KT M03/M07 A3032 RMK A01 T10341067  RH  078%=      5-min Rain = 0
KQU1 200735Z 19007KT M03/M07 A3032 RMK A01 T10341067  RH  078%=      5-min Rain = 0
KQU1 200736Z 19007KT M03/M07 A3032 RMK A01 T10341067  RH  078%=      5-min Rain = 0
KQU1 200737Z 19007KT M03/M07 A3032 RMK A01 T10341068  RH  077%=      5-min Rain = 0
KQU1 200738Z 19007KT M03/M07 A3032 RMK A01 T10341068  RH  077%=      5-min Rain = 0
KQU1 200739Z 19007KT M04/M07 A3032 RMK A01 T10351068  RH  077%=      5-min Rain = 0
KQU1 200740Z 20008KT M04/M07 A3032 RMK A01 T10351069  RH  078%=      5-min Rain = 0
KQU1 200741Z 19008KT M04/M07 A3032 RMK A01 T10361069  RH  078%=      5-min Rain = 0
KQU1 200742Z 19008KT M04/M07 A3032 RMK A01 T10371069  RH  078%=      5-min Rain = 0
KQU1 200743Z 19008KT M04/M07 A3032 RMK A01 T10371068  RH  079%=      5-min Rain = 0
KQU1 200744Z 19008KT M04/M07 A3032 RMK A01 T10361068  RH  079%=      5-min Rain = 0
KQU1 200745Z 19007KT M04/M07 A3031 RMK A01 T10361068  RH  078%=      5-min Rain = 0
KQU1 200746Z 19008KT M04/M07 A3031 RMK A01 T10351067  RH  078%=      5-min Rain = 0
KQU1 200747Z 19009KT M03/M07 A3031 RMK A01 T10331067  RH  078%=      5-min Rain = 0
KQU1 200748Z 19009KT M03/M07 A3031 RMK A01 T10331067  RH  077%=      5-min Rain = 0
KQU1 200749Z 19010KT M03/M07 A3031 RMK A01 T10321067  RH  077%=      5-min Rain = 0
KQU1 200750Z 19009KT M03/M07 A3031 RMK A01 T10321068  RH  077%=      5-min Rain = 0
KQU1 200751Z 19009KT M03/M07 A3031 RMK A01 T10321068  RH  077%=      5-min Rain = 0
KQU1 200752Z 19009KT M03/M07 A3031 RMK A01 T10331068  RH  077%=      5-min Rain = 0
KQU1 200753Z 19010KT M03/M07 A3031 RMK A01 T10331068  RH  077%=      5-min Rain = 0
KQU1 200754Z 19010KT M03/M07 A3031 RMK A01 T10331068  RH  077%=      5-min Rain = 0
KQU1 200755Z 19009KT M03/M07 A3031 RMK A01 T10331068  RH  077%=      5-min Rain = 0
KQU1 200756Z 19008KT M03/M07 A3031 RMK A01 T10331068  RH  076%=      5-min Rain = 0
KQU1 200757Z 19008KT M03/M07 A3031 RMK A01 T10331068  RH  076%=      5-min Rain = 0
KQU1 200758Z 19007KT M03/M07 A3031 RMK A01 T10331068  RH  076%=      5-min Rain = 0
KQU1 200759Z 19007KT M03/M07 A3031 RMK A01 T10321068  RH  076%=      5-min Rain = 0
KQU1 200800Z 20008KT M03/M07 A3031 RMK A01 T10321069  RH  076%=      5-min Rain = 0
KQU1 200801Z 20009KT M03/M07 A3031 RMK A01 T10321069  RH  076%=      5-min Rain = 0
KQU1 200802Z 20010KT M03/M07 A3031 RMK A01 T10331069  RH  076%=      5-min Rain = 0
KQU1 200803Z 20010KT M03/M07 A3031 RMK A01 T10331069  RH  076%=      5-min Rain = 0
KQU1 200804Z 20011KT M03/M07 A3031 RMK A01 T10331069  RH  076%=      5-min Rain = 0
KQU1 200805Z 20011KT M03/M07 A3031 RMK A01 T10331069  RH  076%=      5-min Rain = 0
KQU1 200806Z 19010KT M03/M07 A3031 RMK A01 T10331069  RH  076%=      5-min Rain = 0
KQU1 200807Z 19009KT M03/M07 A3031 RMK A01 T10321069  RH  076%=      5-min Rain = 0
KQU1 200808Z 19009KT M03/M07 A3031 RMK A01 T10321069  RH  075%=      5-min Rain = 0
KQU1 200809Z 20009KT M03/M07 A3031 RMK A01 T10321069  RH  075%=      5-min Rain = 0
KQU1 200810Z 20009KT M03/M07 A3031 RMK A01 T10321069  RH  076%=      5-min Rain = 0
KQU1 200811Z 20010KT M03/M07 A3031 RMK A01 T10321069  RH  076%=      5-min Rain = 0
KQU1 200812Z 19009KT M03/M07 A3031 RMK A01 T10321069  RH  076%=      5-min Rain = 0
KQU1 200813Z 20009KT M03/M07 A3031 RMK A01 T10321069  RH  076%=      5-min Rain = 0
KQU1 200814Z 20009KT M03/M07 A3031 RMK A01 T10321069  RH  076%=      5-min Rain = 0
KQU1 200815Z 20009KT M03/M07 A3031 RMK A01 T10321069  RH  076%=      5-min Rain = 0
KQU1 200816Z 20009KT M03/M07 A3031 RMK A01 T10321070  RH  076%=      5-min Rain = 0
KQU1 200817Z 20009KT M03/M07 A3031 RMK A01 T10331070  RH  076%=      5-min Rain = 0
KQU1 200818Z 20009KT M03/M07 A3031 RMK A01 T10341070  RH  076%=      5-min Rain = 0
KQU1 200819Z 20009KT M04/M07 A3031 RMK A01 T10351070  RH  076%=      5-min Rain = 0
KQU1 200820Z 20009KT M04/M07 A3031 RMK A01 T10351070  RH  077%=      5-min Rain = 0
KQU1 200821Z 20009KT M04/M07 A3031 RMK A01 T10361070  RH  077%=      5-min Rain = 0
KQU1 200822Z 20009KT M04/M07 A3031 RMK A01 T10361070  RH  077%=      5-min Rain = 0
KQU1 200823Z 20009KT M04/M07 A3031 RMK A01 T10361069  RH  077%=      5-min Rain = 0
KQU1 200824Z 19009KT M04/M07 A3031 RMK A01 T10351069  RH  077%=      5-min Rain = 0
KQU1 200825Z 19008KT M04/M07 A3031 RMK A01 T10351069  RH  077%=      5-min Rain = 0
KQU1 200826Z 20008KT M04/M07 A3031 RMK A01 T10351070  RH  077%=      5-min Rain = 0
KQU1 200827Z 20008KT M04/M07 A3031 RMK A01 T10351070  RH  077%=      5-min Rain = 0
KQU1 200828Z 19008KT M04/M07 A3031 RMK A01 T10351070  RH  077%=      5-min Rain = 0
KQU1 200829Z 19008KT M04/M07 A3031 RMK A01 T10351070  RH  077%=      5-min Rain = 0
KQU1 200830Z 19008KT M04/M07 A3031 RMK A01 T10361070  RH  077%=      5-min Rain = 0
KQU1 200831Z 19008KT M04/M07 A3031 RMK A01 T10361070  RH  077%=      5-min Rain = 0
KQU1 200832Z 19008KT M04/M07 A3031 RMK A01 T10361070  RH  077%=      5-min Rain = 0
KQU1 200833Z 18008KT M04/M07 A3031 RMK A01 T10371070  RH  078%=      5-min Rain = 0
KQU1 200834Z 18008KT M04/M07 A3031 RMK A01 T10371070  RH  078%=      5-min Rain = 0
KQU1 200835Z 19008KT M04/M07 A3031 RMK A01 T10381071  RH  078%=      5-min Rain = 0
KQU1 200836Z 19008KT M04/M07 A303 RMK A01 T10381071  RH  078%=      5-min Rain = 0
KQU1 200837Z 19008KT M04/M07 A303 RMK A01 T10391071  RH  078%=      5-min Rain = 0
KQU1 200838Z 19008KT M04/M07 A303 RMK A01 T10391071  RH  078%=      5-min Rain = 0
KQU1 200839Z 19008KT M04/M07 A3031 RMK A01 T10391071  RH  079%=      5-min Rain = 0
KQU1 200840Z 19008KT M04/M07 A3031 RMK A01 T10391071  RH  079%=      5-min Rain = 0
KQU1 200841Z 18008KT M04/M07 A3031 RMK A01 T10391070  RH  079%=      5-min Rain = 0
KQU1 200842Z 18008KT M04/M07 A303 RMK A01 T10391070  RH  079%=      5-min Rain = 0
KQU1 200843Z 18009KT M04/M07 A303 RMK A01 T10381070  RH  079%=      5-min Rain = 0
KQU1 200844Z 19009KT M04/M07 A303 RMK A01 T10381069  RH  079%=      5-min Rain = 0
KQU1 200845Z 19009KT M04/M07 A303 RMK A01 T10371069  RH  078%=      5-min Rain = 0
KQU1 200846Z 19009KT M04/M07 A303 RMK A01 T10371069  RH  078%=      5-min Rain = 0
KQU1 200847Z 19009KT M04/M07 A303 RMK A01 T10361069  RH  078%=      5-min Rain = 0
KQU1 200848Z 19009KT M04/M07 A303 RMK A01 T10361069  RH  077%=      5-min Rain = 0
KQU1 200849Z 19010KT M04/M07 A3031 RMK A01 T10351069  RH  077%=      5-min Rain = 0
KQU1 200850Z 19009KT M03/M07 A3031 RMK A01 T10341069  RH  077%=      5-min Rain = 0
KQU1 200851Z 19009KT M03/M07 A3031 RMK A01 T10331069  RH  076%=      5-min Rain = 0
KQU1 200852Z 19009KT M03/M07 A3031 RMK A01 T10331069  RH  076%=      5-min Rain = 0
KQU1 200853Z 19009KT M03/M07 A303 RMK A01 T10321070  RH  076%=      5-min Rain = 0
KQU1 200854Z 19009KT M03/M07 A303 RMK A01 T10321070  RH  075%=      5-min Rain = 0
KQU1 200855Z 19009KT M03/M07 A303 RMK A01 T10321070  RH  075%=      5-min Rain = 0
KQU1 200856Z 19009KT M03/M07 A303 RMK A01 T10321070  RH  075%=      5-min Rain = 0
KQU1 200857Z 20009KT M03/M07 A303 RMK A01 T10311070  RH  075%=      5-min Rain = 0
KQU1 200858Z 20010KT M03/M07 A3031 RMK A01 T10311070  RH  075%=      5-min Rain = 0
KQU1 200859Z 20010KT M03/M07 A3031 RMK A01 T10311070  RH  075%=      5-min Rain = 0
KQU1 200900Z 20010KT M03/M07 A3031 RMK A01 T10311070  RH  075%=      5-min Rain = 0
KQU1 200901Z 19010KT M03/M07 A3031 RMK A01 T10311070  RH  074%=      5-min Rain = 0
KQU1 200902Z 20010KT M03/M07 A303 RMK A01 T10301070  RH  074%=      5-min Rain = 0
KQU1 200903Z 20010KT M03/M07 A303 RMK A01 T10301070  RH  074%=      5-min Rain = 0
KQU1 200904Z 20010KT M03/M07 A303 RMK A01 T10301070  RH  074%=      5-min Rain = 0
KQU1 200905Z 20010KT M03/M07 A303 RMK A01 T10301070  RH  074%=      5-min Rain = 0
KQU1 200906Z 20010KT M03/M07 A303 RMK A01 T10301070  RH  074%=      5-min Rain = 0
KQU1 200907Z 20010KT M03/M07 A303 RMK A01 T10301070  RH  074%=      5-min Rain = 0
KQU1 200908Z 20010KT M03/M07 A303 RMK A01 T10301070  RH  074%=      5-min Rain = 0
KQU1 200909Z 20010KT M03/M07 A3031 RMK A01 T10301070  RH  074%=      5-min Rain = 0
KQU1 200910Z 20010KT M03/M07 A3031 RMK A01 T10301070  RH  074%=      5-min Rain = 0
KQU1 200911Z 20011KT M03/M07 A3031 RMK A01 T10301070  RH  074%=      5-min Rain = 0
KQU1 200912Z 20011KT M03/M07 A3031 RMK A01 T10301070  RH  073%=      5-min Rain = 0
KQU1 200913Z 20011KT M03/M07 A3031 RMK A01 T10301070  RH  073%=      5-min Rain = 0
KQU1 200914Z 20011KT M03/M07 A3031 RMK A01 T10301071  RH  074%=      5-min Rain = 0
KQU1 200915Z 20010KT M03/M07 A3031 RMK A01 T10301070  RH  074%=      5-min Rain = 0
KQU1 200916Z 20010KT M03/M07 A3031 RMK A01 T10301071  RH  074%=      5-min Rain = 0
KQU1 200917Z 20010KT M03/M07 A3031 RMK A01 T10311071  RH  074%=      5-min Rain = 0
KQU1 200918Z 20010KT M03/M07 A3031 RMK A01 T10311071  RH  074%=      5-min Rain = 0
KQU1 200919Z 20009KT M03/M07 A3031 RMK A01 T10311071  RH  074%=      5-min Rain = 0
KQU1 200920Z 20009KT M03/M07 A3031 RMK A01 T10311071  RH  074%=      5-min Rain = 0
KQU1 200921Z 20009KT M03/M07 A3031 RMK A01 T10311071  RH  074%=      5-min Rain = 0
KQU1 200922Z 20009KT M03/M07 A3031 RMK A01 T10311071  RH  074%=      5-min Rain = 0
KQU1 200923Z 20009KT M03/M07 A3031 RMK A01 T10311071  RH  074%=      5-min Rain = 0
KQU1 200924Z 20009KT M03/M07 A3031 RMK A01 T10311071  RH  074%=      5-min Rain = 0
KQU1 200925Z 20009KT M03/M07 A3031 RMK A01 T10321071  RH  074%=      5-min Rain = 0
KQU1 200926Z 20008KT M03/M07 A3031 RMK A01 T10321071  RH  074%=      5-min Rain = 0
KQU1 200927Z 20008KT M03/M07 A3031 RMK A01 T10331071  RH  075%=      5-min Rain = 0
KQU1 200928Z 20008KT M03/M07 A3031 RMK A01 T10331071  RH  075%=      5-min Rain = 0
KQU1 200929Z 20009KT M03/M07 A3031 RMK A01 T10331071  RH  075%=      5-min Rain = 0
KQU1 200930Z 20009KT M03/M07 A3031 RMK A01 T10331071  RH  075%=      5-min Rain = 0
KQU1 200931Z 20009KT M03/M07 A3031 RMK A01 T10331071  RH  075%=      5-min Rain = 0
KQU1 200932Z 20009KT M03/M07 A3031 RMK A01 T10331071  RH  075%=      5-min Rain = 0
KQU1 200933Z 20009KT M03/M07 A3031 RMK A01 T10331072  RH  074%=      5-min Rain = 0
KQU1 200934Z 20008KT M03/M07 A3031 RMK A01 T10331072  RH  074%=      5-min Rain = 0
KQU1 200935Z 20008KT M03/M07 A3031 RMK A01 T10321072  RH  074%=      5-min Rain = 0
KQU1 200936Z 20008KT M03/M07 A3031 RMK A01 T10321072  RH  074%=      5-min Rain = 0
KQU1 200937Z 20008KT M03/M07 A3031 RMK A01 T10321072  RH  074%=      5-min Rain = 0
KQU1 200938Z 20009KT M03/M07 A3031 RMK A01 T10321072  RH  074%=      5-min Rain = 0
KQU1 200939Z 20009KT M03/M07 A3031 RMK A01 T10321072  RH  074%=      5-min Rain = 0
KQU1 200940Z 20009KT M03/M07 A3031 RMK A01 T10321073  RH  073%=      5-min Rain = 0
KQU1 200941Z 19009KT M03/M07 A3031 RMK A01 T10321073  RH  073%=      5-min Rain = 0
KQU1 200942Z 19009KT M03/M07 A3031 RMK A01 T10321073  RH  073%=      5-min Rain = 0
KQU1 200943Z 20009KT M03/M07 A3032 RMK A01 T10311073  RH  073%=      5-min Rain = 0
KQU1 200944Z 20009KT M03/M07 A3031 RMK A01 T10311073  RH  073%=      5-min Rain = 0
KQU1 200945Z 19008KT M03/M07 A3031 RMK A01 T10311073  RH  073%=      5-min Rain = 0
KQU1 200946Z 20008KT M03/M07 A3031 RMK A01 T10311073  RH  073%=      5-min Rain = 0
KQU1 200947Z 20009KT M03/M07 A3031 RMK A01 T10321073  RH  073%=      5-min Rain = 0
KQU1 200948Z 20008KT M03/M07 A3031 RMK A01 T10321074  RH  073%=      5-min Rain = 0
KQU1 200949Z 20009KT M03/M07 A3031 RMK A01 T10321074  RH  073%=      5-min Rain = 0
KQU1 200950Z 21010KT M03/M07 A3031 RMK A01 T10321074  RH  073%=      5-min Rain = 0
KQU1 200951Z 20009KT M03/M07 A3031 RMK A01 T10321073  RH  073%=      5-min Rain = 0
KQU1 200952Z 20009KT M03/M07 A3031 RMK A01 T10321073  RH  073%=      5-min Rain = 0
KQU1 200953Z 20009KT M03/M07 A3031 RMK A01 T10321073  RH  073%=      5-min Rain = 0
KQU1 200954Z 20009KT M03/M07 A3031 RMK A01 T10321073  RH  073%=      5-min Rain = 0
KQU1 200955Z 20008KT M03/M07 A3031 RMK A01 T10311073  RH  073%=      5-min Rain = 0
KQU1 200956Z 20008KT M03/M07 A3031 RMK A01 T10311073  RH  073%=      5-min Rain = 0
KQU1 200957Z 21009KT M03/M07 A3031 RMK A01 T10311073  RH  073%=      5-min Rain = 0
KQU1 200958Z 21009KT M03/M07 A3031 RMK A01 T10311073  RH  073%=      5-min Rain = 0
KQU1 200959Z 21009KT M03/M07 A3031 RMK A01 T10311073  RH  073%=      5-min Rain = 0
KQU1 201000Z 21009KT M03/M07 A3031 RMK A01 T10311073  RH  073%=      5-min Rain = 0
KQU1 201001Z 21009KT M03/M07 A3031 RMK A01 T10311073  RH  073%=      5-min Rain = 0
KQU1 201002Z 21008KT M03/M07 A303 RMK A01 T10311073  RH  073%=      5-min Rain = 0
KQU1 201003Z 21008KT M03/M07 A303 RMK A01 T10311073  RH  073%=      5-min Rain = 0
KQU1 201004Z 21008KT M03/M07 A303 RMK A01 T10321073  RH  073%=      5-min Rain = 0
KQU1 201005Z 22008KT M03/M07 A303 RMK A01 T10321073  RH  073%=      5-min Rain = 0
KQU1 201006Z 22008KT M03/M07 A303 RMK A01 T10321073  RH  073%=      5-min Rain = 0
KQU1 201007Z 21008KT M03/M07 A303 RMK A01 T10321073  RH  073%=      5-min Rain = 0
KQU1 201008Z 21008KT M03/M07 A303 RMK A01 T10321073  RH  073%=      5-min Rain = 0
KQU1 201009Z 21009KT M03/M07 A303 RMK A01 T10311072  RH  073%=      5-min Rain = 0
KQU1 201010Z 21008KT M03/M07 A303 RMK A01 T10311072  RH  073%=      5-min Rain = 0
KQU1 201011Z 21009KT M03/M07 A303 RMK A01 T10301072  RH  073%=      5-min Rain = 0
KQU1 201012Z 22008KT M03/M07 A303 RMK A01 T10291072  RH  073%=      5-min Rain = 0
KQU1 201013Z 21007KT M03/M07 A303 RMK A01 T10291072  RH  072%=      5-min Rain = 0
KQU1 201014Z 22007KT M03/M07 A303 RMK A01 T10291071  RH  072%=      5-min Rain = 0
KQU1 201015Z 22007KT M03/M07 A303 RMK A01 T10281071  RH  072%=      5-min Rain = 0
KQU1 201016Z 22007KT M03/M07 A303 RMK A01 T10281071  RH  072%=      5-min Rain = 0
KQU1 201017Z 21007KT M03/M07 A303 RMK A01 T10271071  RH  072%=      5-min Rain = 0
KQU1 201018Z 22007KT M03/M07 A303 RMK A01 T10271071  RH  071%=      5-min Rain = 0
KQU1 201019Z 22007KT M03/M07 A303 RMK A01 T10261071  RH  071%=      5-min Rain = 0
KQU1 201020Z 22007KT M03/M07 A303 RMK A01 T10251071  RH  071%=      5-min Rain = 0
KQU1 201021Z 22007KT M03/M07 A303 RMK A01 T10251071  RH  071%=      5-min Rain = 0
KQU1 201022Z 22006KT M03/M07 A303 RMK A01 T10251071  RH  070%=      5-min Rain = 0
KQU1 201023Z 21006KT M03/M07 A3029 RMK A01 T10251071  RH  070%=      5-min Rain = 0
KQU1 201024Z 22006KT M03/M07 A3029 RMK A01 T10251071  RH  070%=      5-min Rain = 0
KQU1 201025Z 22005KT M03/M07 A3029 RMK A01 T10251072  RH  070%=      5-min Rain = 0
KQU1 201026Z 23005KT M03/M07 A3029 RMK A01 T10251072  RH  070%=      5-min Rain = 0
KQU1 201027Z 23006KT M03/M07 A3029 RMK A01 T10261072  RH  070%=      5-min Rain = 0
KQU1 201028Z 22006KT M03/M07 A3029 RMK A01 T10261072  RH  070%=      5-min Rain = 0
KQU1 201029Z 22006KT M03/M07 A3029 RMK A01 T10261072  RH  071%=      5-min Rain = 0
KQU1 201030Z 23006KT M03/M07 A3029 RMK A01 T10261072  RH  071%=      5-min Rain = 0
KQU1 201031Z 22006KT M03/M07 A3029 RMK A01 T10261072  RH  071%=      5-min Rain = 0
KQU1 201032Z 22006KT M03/M07 A3029 RMK A01 T10261072  RH  071%=      5-min Rain = 0
KQU1 201033Z 22006KT M03/M07 A3029 RMK A01 T10261072  RH  071%=      5-min Rain = 0
KQU1 201034Z 22006KT M03/M07 A3029 RMK A01 T10261072  RH  071%=      5-min Rain = 0
KQU1 201035Z 22007KT M03/M07 A3029 RMK A01 T10271072  RH  071%=      5-min Rain = 0
KQU1 201036Z 23007KT M03/M07 A3029 RMK A01 T10271072  RH  071%=      5-min Rain = 0
KQU1 201037Z 23007KT M03/M07 A3029 RMK A01 T10271073  RH  071%=      5-min Rain = 0
KQU1 201038Z 23007KT M03/M07 A3029 RMK A01 T10271073  RH  071%=      5-min Rain = 0
KQU1 201039Z 22007KT M03/M07 A3029 RMK A01 T10281073  RH  071%=      5-min Rain = 0
KQU1 201040Z 22008KT M03/M07 A3029 RMK A01 T10281073  RH  071%=      5-min Rain = 0
KQU1 201041Z 22007KT M03/M07 A3028 RMK A01 T10281073  RH  071%=      5-min Rain = 0
KQU1 201042Z 22007KT M03/M07 A3028 RMK A01 T10281073  RH  071%=      5-min Rain = 0
KQU1 201043Z 22006KT M03/M07 A3028 RMK A01 T10281073  RH  071%=      5-min Rain = 0
KQU1 201044Z 21007KT M03/M07 A3028 RMK A01 T10281073  RH  071%=      5-min Rain = 0
KQU1 201045Z 21006KT M03/M07 A3028 RMK A01 T10281073  RH  071%=      5-min Rain = 0
KQU1 201046Z 21007KT M03/M07 A3028 RMK A01 T10281073  RH  071%=      5-min Rain = 0
KQU1 201047Z 21007KT M03/M07 A3028 RMK A01 T10281073  RH  071%=      5-min Rain = 0
KQU1 201048Z 21006KT M03/M07 A3028 RMK A01 T10281074  RH  071%=      5-min Rain = 0
KQU1 201049Z 21007KT M03/M07 A3028 RMK A01 T10281074  RH  071%=      5-min Rain = 0
KQU1 201050Z 21007KT M03/M07 A3028 RMK A01 T10281074  RH  071%=      5-min Rain = 0
KQU1 201051Z 21006KT M03/M07 A3028 RMK A01 T10291074  RH  071%=      5-min Rain = 0
KQU1 201052Z 22006KT M03/M07 A3028 RMK A01 T10291074  RH  071%=      5-min Rain = 0
KQU1 201053Z 22006KT M03/M07 A3028 RMK A01 T10301074  RH  071%=      5-min Rain = 0
KQU1 201054Z 21006KT M03/M07 A3028 RMK A01 T10301074  RH  072%=      5-min Rain = 0
KQU1 201055Z 21005KT M03/M07 A3028 RMK A01 T10301074  RH  072%=      5-min Rain = 0
KQU1 201056Z 21005KT M03/M07 A3028 RMK A01 T10311074  RH  072%=      5-min Rain = 0
KQU1 201057Z 21004KT M03/M07 A3028 RMK A01 T10321074  RH  072%=      5-min Rain = 0
KQU1 201058Z 20004KT M03/M08 A3028 RMK A01 T10321075  RH  072%=      5-min Rain = 0
KQU1 201059Z 21003KT M03/M08 A3028 RMK A01 T10331075  RH  073%=      5-min Rain = 0
KQU1 201100Z 21003KT M03/M08 A3028 RMK A01 T10341075  RH  073%=      5-min Rain = 0
KQU1 201101Z 21003KT M03/M08 A3028 RMK A01 T10341075  RH  073%=      5-min Rain = 0
KQU1 201102Z 22003KT M04/M08 A3028 RMK A01 T10351075  RH  074%=      5-min Rain = 0
KQU1 201103Z 23004KT M04/M08 A3028 RMK A01 T10361075  RH  074%=      5-min Rain = 0
KQU1 201104Z 23003KT M04/M08 A3028 RMK A01 T10361075  RH  074%=      5-min Rain = 0
KQU1 201105Z 22004KT M04/M08 A3028 RMK A01 T10361075  RH  074%=      5-min Rain = 0
KQU1 201106Z 22004KT M04/M08 A3028 RMK A01 T10361075  RH  075%=      5-min Rain = 0
KQU1 201107Z 22005KT M04/M07 A3028 RMK A01 T10361074  RH  075%=      5-min Rain = 0
KQU1 201108Z 22006KT M04/M07 A3028 RMK A01 T10351073  RH  075%=      5-min Rain = 0
KQU1 201109Z 22006KT M04/M07 A3028 RMK A01 T10351073  RH  075%=      5-min Rain = 0
KQU1 201110Z 22007KT M03/M07 A3027 RMK A01 T10341073  RH  075%=      5-min Rain = 0
KQU1 201111Z 21007KT M03/M07 A3027 RMK A01 T10341072  RH  075%=      5-min Rain = 0
KQU1 201112Z 22007KT M03/M07 A3027 RMK A01 T10341072  RH  075%=      5-min Rain = 0
KQU1 201113Z 22006KT M03/M07 A3027 RMK A01 T10341072  RH  075%=      5-min Rain = 0
KQU1 201114Z 21007KT M04/M07 A3027 RMK A01 T10351072  RH  075%=      5-min Rain = 0
KQU1 201115Z 21007KT M04/M07 A3027 RMK A01 T10351071  RH  076%=      5-min Rain = 0
KQU1 201116Z 21007KT M03/M07 A3027 RMK A01 T10341071  RH  076%=      5-min Rain = 0
KQU1 201117Z 21007KT M03/M07 A3027 RMK A01 T10331070  RH  076%=      5-min Rain = 0
KQU1 201118Z 20007KT M03/M07 A3027 RMK A01 T10331070  RH  075%=      5-min Rain = 0
KQU1 201119Z 20006KT M03/M07 A3027 RMK A01 T10331071  RH  075%=      5-min Rain = 0
KQU1 201120Z 20006KT M03/M07 A3027 RMK A01 T10331071  RH  075%=      5-min Rain = 0
KQU1 201121Z 20006KT M03/M07 A3027 RMK A01 T10341071  RH  075%=      5-min Rain = 0
KQU1 201122Z 20006KT M04/M07 A3027 RMK A01 T10351072  RH  075%=      5-min Rain = 0
KQU1 201123Z 21006KT M04/M07 A3027 RMK A01 T10361072  RH  076%=      5-min Rain = 0
KQU1 201124Z 21006KT M04/M07 A3027 RMK A01 T10361072  RH  076%=      5-min Rain = 0
KQU1 201125Z 21007KT M04/M07 A3027 RMK A01 T10371072  RH  077%=      5-min Rain = 0
KQU1 201126Z 22007KT M04/M07 A3027 RMK A01 T10371071  RH  077%=      5-min Rain = 0
KQU1 201127Z 22007KT M04/M07 A3027 RMK A01 T10361071  RH  077%=      5-min Rain = 0
KQU1 201128Z 22007KT M04/M07 A3026 RMK A01 T10361071  RH  077%=      5-min Rain = 0
KQU1 201129Z 21007KT M04/M07 A3026 RMK A01 T10361071  RH  077%=      5-min Rain = 0
KQU1 201130Z 21007KT M04/M07 A3026 RMK A01 T10351071  RH  077%=      5-min Rain = 0
KQU1 201131Z 21006KT M04/M07 A3026 RMK A01 T10351071  RH  076%=      5-min Rain = 0
KQU1 201132Z 21006KT M04/M07 A3026 RMK A01 T10351071  RH  076%=      5-min Rain = 0
KQU1 201133Z 21007KT M04/M07 A3026 RMK A01 T10351071  RH  076%=      5-min Rain = 0
KQU1 201134Z 20007KT M04/M07 A3026 RMK A01 T10361071  RH  076%=      5-min Rain = 0
KQU1 201135Z 20007KT M04/M07 A3026 RMK A01 T10361072  RH  076%=      5-min Rain = 0
KQU1 201136Z 20007KT M04/M07 A3026 RMK A01 T10371072  RH  077%=      5-min Rain = 0
KQU1 201137Z 20006KT M04/M07 A3026 RMK A01 T10371072  RH  077%=      5-min Rain = 0
KQU1 201138Z 20006KT M04/M07 A3026 RMK A01 T10381072  RH  077%=      5-min Rain = 0
KQU1 201139Z 21007KT M04/M07 A3026 RMK A01 T10381072  RH  077%=      5-min Rain = 0
KQU1 201140Z 21007KT M04/M07 A3026 RMK A01 T10391073  RH  077%=      5-min Rain = 0
KQU1 201141Z 21008KT M04/M07 A3026 RMK A01 T10401073  RH  078%=      5-min Rain = 0
KQU1 201142Z 21009KT M04/M07 A3026 RMK A01 T10401072  RH  078%=      5-min Rain = 0
KQU1 201143Z 21008KT M04/M07 A3026 RMK A01 T10391072  RH  078%=      5-min Rain = 0
KQU1 201144Z 21008KT M04/M07 A3026 RMK A01 T10391071  RH  078%=      5-min Rain = 0
KQU1 201145Z 21008KT M04/M07 A3026 RMK A01 T10381071  RH  078%=      5-min Rain = 0
KQU1 201146Z 21007KT M04/M07 A3026 RMK A01 T10371070  RH  078%=      5-min Rain = 0
KQU1 201147Z 21007KT M04/M07 A3026 RMK A01 T10371070  RH  078%=      5-min Rain = 0
KQU1 201148Z 21007KT M04/M07 A3026 RMK A01 T10371070  RH  077%=      5-min Rain = 0
KQU1 201149Z 21006KT M04/M07 A3026 RMK A01 T10371070  RH  077%=      5-min Rain = 0
KQU1 201150Z 21007KT M04/M07 A3026 RMK A01 T10371070  RH  077%=      5-min Rain = 0
KQU1 201151Z 21007KT M04/M07 A3026 RMK A01 T10371071  RH  077%=      5-min Rain = 0
KQU1 201152Z 21007KT M04/M07 A3026 RMK A01 T10371071  RH  077%=      5-min Rain = 0
KQU1 201153Z 21006KT M04/M07 A3026 RMK A01 T10371071  RH  077%=      5-min Rain = 0
KQU1 201154Z 21006KT M04/M07 A3026 RMK A01 T10371071  RH  077%=      5-min Rain = 0
KQU1 201155Z 20005KT M04/M07 A3026 RMK A01 T10381071  RH  078%=      5-min Rain = 0
KQU1 201156Z 20005KT M04/M07 A3026 RMK A01 T10381071  RH  078%=      5-min Rain = 0
KQU1 201157Z 20005KT M04/M07 A3026 RMK A01 T10391071  RH  078%=      5-min Rain = 0
KQU1 201158Z 21006KT M04/M07 A3026 RMK A01 T10391072  RH  078%=      5-min Rain = 0
KQU1 201159Z 21006KT M04/M07 A3026 RMK A01 T10401072  RH  078%=      5-min Rain = 0
KQU1 201200Z 21007KT M04/M07 A3026 RMK A01 T10401072  RH  078%=      5-min Rain = 0
KQU1 201201Z 21007KT M04/M07 A3026 RMK A01 T10411072  RH  079%=      5-min Rain = 0
KQU1 201202Z 21007KT M04/M07 A3026 RMK A01 T10411072  RH  079%=      5-min Rain = 0
KQU1 201203Z 20008KT M04/M07 A3026 RMK A01 T10411072  RH  079%=      5-min Rain = 0
KQU1 201204Z 20007KT M04/M07 A3026 RMK A01 T10411072  RH  079%=      5-min Rain = 0
KQU1 201205Z 20007KT M04/M07 A3026 RMK A01 T10411072  RH  079%=      5-min Rain = 0
KQU1 201206Z 20007KT M04/M07 A3026 RMK A01 T10411072  RH  079%=      5-min Rain = 0
KQU1 201207Z 20007KT M04/M07 A3026 RMK A01 T10401071  RH  079%=      5-min Rain = 0
KQU1 201208Z 20007KT M04/M07 A3026 RMK A01 T10401071  RH  079%=      5-min Rain = 0
KQU1 201209Z 20008KT M04/M07 A3025 RMK A01 T10401071  RH  079%=      5-min Rain = 0
KQU1 201210Z 19008KT M04/M07 A3025 RMK A01 T10401071  RH  079%=      5-min Rain = 0
KQU1 201211Z 20008KT M04/M07 A3025 RMK A01 T10401071  RH  079%=      5-min Rain = 0
KQU1 201212Z 20008KT M04/M07 A3025 RMK A01 T10401071  RH  079%=      5-min Rain = 0
KQU1 201213Z 20009KT M04/M07 A3025 RMK A01 T10391071  RH  079%=      5-min Rain = 0
KQU1 201214Z 20008KT M04/M07 A3025 RMK A01 T10391071  RH  078%=      5-min Rain = 0
KQU1 201215Z 20008KT M04/M07 A3025 RMK A01 T10381071  RH  078%=      5-min Rain = 0
KQU1 201216Z 20008KT M04/M07 A3025 RMK A01 T10381071  RH  078%=      5-min Rain = 0
KQU1 201217Z 20008KT M04/M07 A3025 RMK A01 T10371071  RH  078%=      5-min Rain = 0
KQU1 201218Z 20008KT M04/M07 A3025 RMK A01 T10371071  RH  078%=      5-min Rain = 0
KQU1 201219Z 19008KT M04/M07 A3025 RMK A01 T10371071  RH  077%=      5-min Rain = 0
KQU1 201220Z 19008KT M04/M07 A3025 RMK A01 T10361071  RH  077%=      5-min Rain = 0
KQU1 201221Z 19008KT M04/M07 A3026 RMK A01 T10361071  RH  077%=      5-min Rain = 0
KQU1 201222Z 19007KT M04/M07 A3026 RMK A01 T10361071  RH  077%=      5-min Rain = 0
KQU1 201223Z 19008KT M04/M07 A3026 RMK A01 T10371071  RH  077%=      5-min Rain = 0
KQU1 201224Z 19008KT M04/M07 A3026 RMK A01 T10371072  RH  077%=      5-min Rain = 0
KQU1 201225Z 20008KT M04/M07 A3026 RMK A01 T10381071  RH  078%=      5-min Rain = 0
KQU1 201226Z 20008KT M04/M07 A3025 RMK A01 T10381071  RH  078%=      5-min Rain = 0
KQU1 201227Z 21009KT M04/M07 A3025 RMK A01 T10381071  RH  078%=      5-min Rain = 0
KQU1 201228Z 21010KT M04/M07 A3025 RMK A01 T10371071  RH  077%=      5-min Rain = 0
KQU1 201229Z 21010KT M04/M07 A3025 RMK A01 T10371071  RH  077%=      5-min Rain = 0
KQU1 201230Z 21010KT M04/M07 A3025 RMK A01 T10361071  RH  077%=      5-min Rain = 0
KQU1 201231Z 21010KT M04/M07 A3025 RMK A01 T10351071  RH  076%=      5-min Rain = 0
KQU1 201232Z 20009KT M04/M07 A3025 RMK A01 T10351071  RH  076%=      5-min Rain = 0
KQU1 201233Z 20009KT M03/M07 A3025 RMK A01 T10341071  RH  076%=      5-min Rain = 0
KQU1 201234Z 20009KT M03/M07 A3025 RMK A01 T10341071  RH  076%=      5-min Rain = 0
KQU1 201235Z 19009KT M03/M07 A3025 RMK A01 T10341071  RH  076%=      5-min Rain = 0
KQU1 201236Z 19008KT M04/M07 A3025 RMK A01 T10351071  RH  076%=      5-min Rain = 0
KQU1 201237Z 20009KT M04/M07 A3025 RMK A01 T10351072  RH  076%=      5-min Rain = 0
KQU1 201238Z 20009KT M04/M07 A3025 RMK A01 T10361072  RH  076%=      5-min Rain = 0
KQU1 201239Z 20010KT M04/M07 A3025 RMK A01 T10371072  RH  077%=      5-min Rain = 0
KQU1 201240Z 21011KT M04/M07 A3025 RMK A01 T10381072  RH  077%=      5-min Rain = 0
KQU1 201241Z 21011KT M04/M07 A3025 RMK A01 T10381072  RH  077%=      5-min Rain = 0
KQU1 201242Z 21011KT M04/M07 A3025 RMK A01 T10371072  RH  077%=      5-min Rain = 0
KQU1 201243Z 21011KT M04/M07 A3025 RMK A01 T10361071  RH  077%=      5-min Rain = 0
KQU1 201244Z 20011KT M04/M07 A3025 RMK A01 T10351071  RH  076%=      5-min Rain = 0
KQU1 201245Z 20011KT M04/M07 A3025 RMK A01 T10351071  RH  076%=      5-min Rain = 0
KQU1 201246Z 20011KT M03/M07 A3025 RMK A01 T10341071  RH  075%=      5-min Rain = 0
KQU1 201247Z 20011KT M03/M07 A3025 RMK A01 T10341071  RH  075%=      5-min Rain = 0
KQU1 201248Z 20011KT M03/M07 A3025 RMK A01 T10341071  RH  075%=      5-min Rain = 0
KQU1 201249Z 20010KT M03/M07 A3025 RMK A01 T10341072  RH  075%=      5-min Rain = 0
KQU1 201250Z 20010KT M03/M07 A3025 RMK A01 T10341072  RH  075%=      5-min Rain = 0
KQU1 201251Z 20011KT M04/M07 A3025 RMK A01 T10351072  RH  076%=      5-min Rain = 0
KQU1 201252Z 20011KT M04/M07 A3025 RMK A01 T10361073  RH  076%=      5-min Rain = 0
KQU1 201253Z 20011KT M04/M07 A3025 RMK A01 T10371072  RH  076%=      5-min Rain = 0
KQU1 201254Z 20011KT M04/M07 A3025 RMK A01 T10371072  RH  076%=      5-min Rain = 0
KQU1 201255Z 20012KT M04/M07 A3025 RMK A01 T10371072  RH  077%=      5-min Rain = 0
KQU1 201256Z 20012KT M04/M07 A3025 RMK A01 T10371072  RH  077%=      5-min Rain = 0
KQU1 201257Z 20011KT M04/M07 A3025 RMK A01 T10371072  RH  077%=      5-min Rain = 0
KQU1 201258Z 20011KT M04/M07 A3025 RMK A01 T10371072  RH  077%=      5-min Rain = 0
KQU1 201259Z 20011KT M04/M07 A3025 RMK A01 T10361072  RH  077%=      5-min Rain = 0
KQU1 201300Z 20011KT M04/M07 A3026 RMK A01 T10361071  RH  077%=      5-min Rain = 0
KQU1 201301Z 20011KT M04/M07 A3026 RMK A01 T10361071  RH  076%=      5-min Rain = 0
KQU1 201302Z 20011KT M04/M07 A3026 RMK A01 T10361071  RH  076%=      5-min Rain = 0
KQU1 201303Z 20011KT M04/M07 A3026 RMK A01 T10361071  RH  076%=      5-min Rain = 0
KQU1 201304Z 20011KT M04/M07 A3026 RMK A01 T10361071  RH  076%=      5-min Rain = 0
KQU1 201305Z 20011KT M04/M07 A3026 RMK A01 T10361071  RH  076%=      5-min Rain = 0
KQU1 201306Z 20011KT M04/M07 A3026 RMK A01 T10361071  RH  076%=      5-min Rain = 0
KQU1 201307Z 20011KT M04/M07 A3026 RMK A01 T10361071  RH  076%=      5-min Rain = 0
KQU1 201308Z 20011KT M04/M07 A3026 RMK A01 T10361071  RH  077%=      5-min Rain = 0
KQU1 201309Z 20011KT M04/M07 A3026 RMK A01 T10361071  RH  077%=      5-min Rain = 0
KQU1 201310Z 20011KT M04/M07 A3026 RMK A01 T10361071  RH  077%=      5-min Rain = 0
KQU1 201311Z 20011KT M04/M07 A3026 RMK A01 T10361071  RH  077%=      5-min Rain = 0
KQU1 201312Z 20011KT M04/M07 A3026 RMK A01 T10351071  RH  077%=      5-min Rain = 0
KQU1 201313Z 20012KT M04/M07 A3026 RMK A01 T10351070  RH  076%=      5-min Rain = 0
KQU1 201314Z 20012KT M04/M07 A3026 RMK A01 T10351070  RH  076%=      5-min Rain = 0
KQU1 201315Z 20012KT M03/M07 A3026 RMK A01 T10341070  RH  076%=      5-min Rain = 0
KQU1 201316Z 20013KT M03/M07 A3026 RMK A01 T10341070  RH  076%=      5-min Rain = 0
KQU1 201317Z 20013KT M03/M07 A3026 RMK A01 T10331070  RH  076%=      5-min Rain = 0
KQU1 201318Z 20013KT M03/M07 A3026 RMK A01 T10321070  RH  075%=      5-min Rain = 0
KQU1 201319Z 20013KT M03/M07 A3025 RMK A01 T10321070  RH  075%=      5-min Rain = 0
KQU1 201320Z 20014KT M03/M07 A3025 RMK A01 T10311070  RH  074%=      5-min Rain = 0
KQU1 201321Z 20014KT M03/M07 A3025 RMK A01 T10311070  RH  074%=      5-min Rain = 0
KQU1 201322Z 20014KT M03/M07 A3025 RMK A01 T10301071  RH  073%=      5-min Rain = 0
KQU1 201323Z 20014KT M03/M07 A3025 RMK A01 T10291071  RH  073%=      5-min Rain = 0
KQU1 201324Z 20014KT M03/M07 A3025 RMK A01 T10291071  RH  073%=      5-min Rain = 0
KQU1 201325Z 20013KT M03/M07 A3025 RMK A01 T10291071  RH  072%=      5-min Rain = 0
KQU1 201326Z 21013KT M03/M07 A3025 RMK A01 T10291071  RH  072%=      5-min Rain = 0
KQU1 201327Z 20013KT M03/M07 A3025 RMK A01 T10291072  RH  073%=      5-min Rain = 0
KQU1 201328Z 20013KT M03/M07 A3026 RMK A01 T10291072  RH  073%=      5-min Rain = 0
KQU1 201329Z 20013KT M03/M07 A3026 RMK A01 T10301072  RH  073%=      5-min Rain = 0
KQU1 201330Z 20013KT M03/M07 A3026 RMK A01 T10301072  RH  073%=      5-min Rain = 0
KQU1 201331Z 20012KT M03/M07 A3026 RMK A01 T10301072  RH  073%=      5-min Rain = 0
KQU1 201332Z 20012KT M03/M07 A3026 RMK A01 T10301072  RH  073%=      5-min Rain = 0
KQU1 201333Z 20011KT M03/M07 A3026 RMK A01 T10301072  RH  073%=      5-min Rain = 0
KQU1 201334Z 20012KT M03/M07 A3026 RMK A01 T10301072  RH  073%=      5-min Rain = 0
KQU1 201335Z 20012KT M03/M07 A3026 RMK A01 T10301072  RH  073%=      5-min Rain = 0
KQU1 201336Z 20013KT M03/M07 A3026 RMK A01 T10301072  RH  072%=      5-min Rain = 0
KQU1 201337Z 20012KT M03/M07 A3026 RMK A01 T10291072  RH  072%=      5-min Rain = 0
KQU1 201338Z 20013KT M03/M07 A3026 RMK A01 T10281072  RH  072%=      5-min Rain = 0
KQU1 201339Z 21013KT M03/M07 A3026 RMK A01 T10281072  RH  071%=      5-min Rain = 0
KQU1 201340Z 20013KT M03/M07 A3025 RMK A01 T10271073  RH  071%=      5-min Rain = 0
KQU1 201341Z 21013KT M03/M07 A3026 RMK A01 T10261073  RH  070%=      5-min Rain = 0
KQU1 201342Z 20013KT M03/M07 A3025 RMK A01 T10261073  RH  070%=      5-min Rain = 0
KQU1 201343Z 21013KT M03/M07 A3025 RMK A01 T10251073  RH  070%=      5-min Rain = 0
KQU1 201344Z 20013KT M03/M07 A3025 RMK A01 T10251073  RH  069%=      5-min Rain = 0
KQU1 201345Z 20014KT M03/M07 A3025 RMK A01 T10251074  RH  069%=      5-min Rain = 0
KQU1 201346Z 20012KT M02/M07 A3025 RMK A01 T10241074  RH  069%=      5-min Rain = 0
KQU1 201347Z 20013KT M02/M07 A3026 RMK A01 T10241074  RH  069%=      5-min Rain = 0
KQU1 201348Z 20012KT M03/M07 A3026 RMK A01 T10251074  RH  069%=      5-min Rain = 0
KQU1 201349Z 20013KT M03/M07 A3026 RMK A01 T10251074  RH  069%=      5-min Rain = 0
KQU1 201350Z 20012KT M03/M07 A3025 RMK A01 T10251074  RH  069%=      5-min Rain = 0
KQU1 201351Z 19012KT M03/M07 A3025 RMK A01 T10261074  RH  070%=      5-min Rain = 0
KQU1 201352Z 20013KT M03/M07 A3025 RMK A01 T10261074  RH  070%=      5-min Rain = 0
KQU1 201353Z 20013KT M03/M07 A3025 RMK A01 T10271074  RH  070%=      5-min Rain = 0
KQU1 201354Z 20013KT M03/M07 A3025 RMK A01 T10271074  RH  070%=      5-min Rain = 0
KQU1 201355Z 20013KT M03/M07 A3025 RMK A01 T10281074  RH  071%=      5-min Rain = 0
KQU1 201356Z 20013KT M03/M07 A3025 RMK A01 T10281074  RH  071%=      5-min Rain = 0
KQU1 201357Z 20013KT M03/M07 A3025 RMK A01 T10281074  RH  071%=      5-min Rain = 0
KQU1 201358Z 20013KT M03/M07 A3025 RMK A01 T10291074  RH  071%=      5-min Rain = 0
KQU1 201359Z 20013KT M03/M07 A3025 RMK A01 T10291074  RH  071%=      5-min Rain = 0
KQU1 201400Z 19013KT M03/M07 A3025 RMK A01 T10291074  RH  071%=      5-min Rain = 0
KQU1 201401Z 20012KT M03/M07 A3025 RMK A01 T10291074  RH  072%=      5-min Rain = 0
KQU1 201402Z 20012KT M03/M07 A3025 RMK A01 T10301074  RH  072%=      5-min Rain = 0
KQU1 201403Z 20012KT M03/M07 A3025 RMK A01 T10301073  RH  072%=      5-min Rain = 0
KQU1 201404Z 20012KT M03/M07 A3025 RMK A01 T10301073  RH  072%=      5-min Rain = 0
KQU1 201405Z 19012KT M03/M07 A3025 RMK A01 T10311073  RH  072%=      5-min Rain = 0
KQU1 201406Z 19011KT M03/M07 A3025 RMK A01 T10311073  RH  073%=      5-min Rain = 0
KQU1 201407Z 19011KT M03/M07 A3025 RMK A01 T10311073  RH  073%=      5-min Rain = 0
KQU1 201408Z 19011KT M03/M07 A3025 RMK A01 T10311073  RH  073%=      5-min Rain = 0
KQU1 201409Z 19011KT M03/M07 A3025 RMK A01 T10321073  RH  073%=      5-min Rain = 0
KQU1 201410Z 19011KT M03/M07 A3025 RMK A01 T10321073  RH  073%=      5-min Rain = 0
KQU1 201411Z 19011KT M03/M07 A3025 RMK A01 T10321073  RH  073%=      5-min Rain = 0
KQU1 201412Z 19011KT M03/M07 A3025 RMK A01 T10311073  RH  073%=      5-min Rain = 0
KQU1 201413Z 20012KT M03/M07 A3025 RMK A01 T10311072  RH  073%=      5-min Rain = 0
KQU1 201414Z 19012KT M03/M07 A3025 RMK A01 T10311072  RH  073%=      5-min Rain = 0
KQU1 201415Z 19012KT M03/M07 A3025 RMK A01 T10311072  RH  073%=      5-min Rain = 0
KQU1 201416Z 19012KT M03/M07 A3025 RMK A01 T10301072  RH  073%=      5-min Rain = 0
KQU1 201417Z 19012KT M03/M07 A3025 RMK A01 T10301072  RH  073%=      5-min Rain = 0
KQU1 201418Z 19012KT M03/M07 A3025 RMK A01 T10291072  RH  072%=      5-min Rain = 0
KQU1 201419Z 19011KT M03/M07 A3025 RMK A01 T10281072  RH  072%=      5-min Rain = 0
KQU1 201420Z 19011KT M03/M07 A3025 RMK A01 T10281072  RH  072%=      5-min Rain = 0
KQU1 201421Z 19011KT M03/M07 A3025 RMK A01 T10281072  RH  072%=      5-min Rain = 0
KQU1 201422Z 19011KT M03/M07 A3025 RMK A01 T10271071  RH  072%=      5-min Rain = 0
KQU1 201423Z 19011KT M03/M07 A3025 RMK A01 T10271071  RH  072%=      5-min Rain = 0
KQU1 201424Z 19011KT M03/M07 A3025 RMK A01 T10271071  RH  072%=      5-min Rain = 0
KQU1 201425Z 19011KT M03/M07 A3025 RMK A01 T10271071  RH  072%=      5-min Rain = 0
KQU1 201426Z 19011KT M03/M07 A3025 RMK A01 T10261070  RH  072%=      5-min Rain = 0
KQU1 201427Z 19011KT M03/M07 A3025 RMK A01 T10251070  RH  071%=      5-min Rain = 0
KQU1 201428Z 19011KT M03/M07 A3025 RMK A01 T10251069  RH  071%=      5-min Rain = 0
KQU1 201429Z 19010KT M02/M07 A3025 RMK A01 T10241068  RH  071%=      5-min Rain = 0
KQU1 201430Z 19010KT M02/M07 A3025 RMK A01 T10231068  RH  071%=      5-min Rain = 0
KQU1 201431Z 19009KT M02/M07 A3025 RMK A01 T10221068  RH  071%=      5-min Rain = 0
KQU1 201432Z 19010KT M02/M07 A3025 RMK A01 T10211067  RH  071%=      5-min Rain = 0
KQU1 201433Z 18009KT M02/M07 A3025 RMK A01 T10201067  RH  070%=      5-min Rain = 0
KQU1 201434Z 18009KT M02/M07 A3025 RMK A01 T10191067  RH  070%=      5-min Rain = 0
KQU1 201435Z 18009KT M02/M07 A3025 RMK A01 T10191067  RH  070%=      5-min Rain = 0
KQU1 201436Z 18010KT M02/M07 A3025 RMK A01 T10181067  RH  069%=      5-min Rain = 0
KQU1 201437Z 18009KT M02/M07 A3025 RMK A01 T10181067  RH  069%=      5-min Rain = 0
KQU1 201438Z 19009KT M02/M07 A3025 RMK A01 T10171067  RH  069%=      5-min Rain = 0
KQU1 201439Z 19008KT M02/M07 A3025 RMK A01 T10161066  RH  069%=      5-min Rain = 0
KQU1 201440Z 19008KT M02/M07 A3025 RMK A01 T10161065  RH  069%=      5-min Rain = 0
KQU1 201441Z 18008KT M02/M07 A3025 RMK A01 T10151065  RH  069%=      5-min Rain = 0
KQU1 201442Z 18008KT M01/M06 A3025 RMK A01 T10141064  RH  069%=      5-min Rain = 0
KQU1 201443Z 19008KT M01/M06 A3025 RMK A01 T10131064  RH  069%=      5-min Rain = 0
KQU1 201444Z 19008KT M01/M06 A3025 RMK A01 T10121063  RH  068%=      5-min Rain = 0
KQU1 201445Z 18008KT M01/M06 A3025 RMK A01 T10121063  RH  068%=      5-min Rain = 0
KQU1 201446Z 19007KT M01/M06 A3025 RMK A01 T10111063  RH  068%=      5-min Rain = 0
KQU1 201447Z 18008KT M01/M06 A3025 RMK A01 T10101062  RH  068%=      5-min Rain = 0
KQU1 201448Z 18008KT M01/M06 A3025 RMK A01 T10101062  RH  068%=      5-min Rain = 0
KQU1 201449Z 18008KT M01/M06 A3025 RMK A01 T10091062  RH  067%=      5-min Rain = 0
KQU1 201450Z 17007KT M01/M06 A3025 RMK A01 T10091062  RH  067%=      5-min Rain = 0
KQU1 201451Z 17008KT M01/M06 A3025 RMK A01 T10091062  RH  067%=      5-min Rain = 0
KQU1 201452Z 17008KT M01/M06 A3025 RMK A01 T10081062  RH  067%=      5-min Rain = 0
KQU1 201453Z 17008KT M01/M06 A3025 RMK A01 T10081063  RH  067%=      5-min Rain = 0
KQU1 201454Z 17007KT M01/M06 A3025 RMK A01 T10081061  RH  067%=      5-min Rain = 0
KQU1 201455Z 17007KT M01/M06 A3025 RMK A01 T10071062  RH  066%=      5-min Rain = 0
KQU1 201456Z 17007KT M01/M06 A3025 RMK A01 T10071062  RH  067%=      5-min Rain = 0
KQU1 201457Z 17007KT M01/M06 A3025 RMK A01 T10071061  RH  067%=      5-min Rain = 0
KQU1 201458Z 17007KT M01/M06 A3025 RMK A01 T10071061  RH  067%=      5-min Rain = 0
KQU1 201459Z 17006KT M01/M06 A3025 RMK A01 T10071061  RH  066%=      5-min Rain = 0
KQU1 201500Z 17006KT M01/M06 A3025 RMK A01 T10061060  RH  067%=      5-min Rain = 0
KQU1 201501Z 17006KT M01/M06 A3025 RMK A01 T10061060  RH  067%=      5-min Rain = 0
KQU1 201502Z 17006KT M01/M06 A3025 RMK A01 T10061059  RH  067%=      5-min Rain = 0
KQU1 201503Z 18007KT M01/M06 A3025 RMK A01 T10051059  RH  067%=      5-min Rain = 0
KQU1 201504Z 18007KT M01/M06 A3025 RMK A01 T10051059  RH  067%=      5-min Rain = 0
KQU1 201505Z 18007KT M00/M06 A3025 RMK A01 T10041058  RH  067%=      5-min Rain = 0
KQU1 201506Z 18007KT M00/M06 A3024 RMK A01 T10031057  RH  067%=      5-min Rain = 0
KQU1 201507Z 18008KT M00/M06 A3024 RMK A01 T10031057  RH  067%=      5-min Rain = 0
KQU1 201508Z 18008KT M00/M06 A3024 RMK A01 T10021058  RH  066%=      5-min Rain = 0
KQU1 201509Z 17007KT M00/M06 A3024 RMK A01 T10021058  RH  066%=      5-min Rain = 0
KQU1 201510Z 18007KT M00/M06 A3024 RMK A01 T10011057  RH  066%=      5-min Rain = 0
KQU1 201511Z 17008KT M00/M06 A3024 RMK A01 T10011057  RH  066%=      5-min Rain = 0
KQU1 201512Z 17008KT 00/06 A3025 RMK A01 T00-00-58  RH  065%=      5-min Rain = 0
KQU1 201513Z 17008KT 00/06 A3025 RMK A01 T00-00-58  RH  065%=      5-min Rain = 0
KQU1 201514Z 18007KT 00/06 A3025 RMK A01 T00-00-58  RH  065%=      5-min Rain = 0
KQU1 201515Z 18007KT 00/06 A3024 RMK A01 T00000-57  RH  065%=      5-min Rain = 0
KQU1 201516Z 18007KT 00/M06 A3024 RMK A01 T00011057  RH  065%=      5-min Rain = 0
KQU1 201517Z 18006KT 00/M06 A3024 RMK A01 T00011056  RH  065%=      5-min Rain = 0
KQU1 201518Z 18007KT 00/M06 A3024 RMK A01 T00021056  RH  065%=      5-min Rain = 0
KQU1 201519Z 18008KT 00/M06 A3024 RMK A01 T00021056  RH  065%=      5-min Rain = 0
KQU1 201520Z 18006KT 00/M06 A3024 RMK A01 T00021055  RH  066%=      5-min Rain = 0
KQU1 201521Z 18007KT 00/M06 A3024 RMK A01 T00031055  RH  065%=      5-min Rain = 0
KQU1 201522Z 18007KT 00/M05 A3024 RMK A01 T00031054  RH  065%=      5-min Rain = 0
KQU1 201523Z 18007KT 00/M05 A3024 RMK A01 T00031054  RH  065%=      5-min Rain = 0
KQU1 201524Z 18007KT 00/M05 A3024 RMK A01 T00041054  RH  065%=      5-min Rain = 0
KQU1 201525Z 19007KT 00/M05 A3024 RMK A01 T00041054  RH  065%=      5-min Rain = 0
KQU1 201526Z 18008KT 00/M05 A3024 RMK A01 T00041053  RH  065%=      5-min Rain = 0
KQU1 201527Z 19007KT 01/M05 A3024 RMK A01 T00051053  RH  065%=      5-min Rain = 0
KQU1 201528Z 19008KT 01/M05 A3024 RMK A01 T00061052  RH  065%=      5-min Rain = 0
KQU1 201529Z 19009KT 01/M05 A3024 RMK A01 T00061053  RH  065%=      5-min Rain = 0
KQU1 201530Z 19009KT 01/M05 A3024 RMK A01 T00071052  RH  065%=      5-min Rain = 0
KQU1 201531Z 19009KT 01/M05 A3024 RMK A01 T00071052  RH  064%=      5-min Rain = 0
KQU1 201532Z 19007KT 01/M05 A3024 RMK A01 T00071052  RH  065%=      5-min Rain = 0
KQU1 201533Z 18009KT 01/M05 A3024 RMK A01 T00081051  RH  065%=      5-min Rain = 0
KQU1 201534Z 19010KT 01/M05 A3024 RMK A01 T00081052  RH  064%=      5-min Rain = 0
KQU1 201535Z 19009KT 01/M05 A3024 RMK A01 T00081052  RH  064%=      5-min Rain = 0
KQU1 201536Z 19009KT 01/M05 A3024 RMK A01 T00091051  RH  064%=      5-min Rain = 0
KQU1 201537Z 19010KT 01/M05 A3024 RMK A01 T00091051  RH  064%=      5-min Rain = 0
KQU1 201538Z 19010KT 01/M05 A3024 RMK A01 T00091051  RH  064%=      5-min Rain = 0
KQU1 201539Z 19009KT 01/M05 A3024 RMK A01 T00101050  RH  064%=      5-min Rain = 0
KQU1 201540Z 19010KT 01/M05 A3024 RMK A01 T00111051  RH  063%=      5-min Rain = 0
KQU1 201541Z 19011KT 01/M05 A3024 RMK A01 T00111050  RH  064%=      5-min Rain = 0
KQU1 201542Z 19012KT 01/M05 A3024 RMK A01 T00121051  RH  063%=      5-min Rain = 0
KQU1 201543Z 19010KT 01/M05 A3024 RMK A01 T00121050  RH  063%=      5-min Rain = 0
KQU1 201544Z 19010KT 01/M05 A3024 RMK A01 T00131049  RH  063%=      5-min Rain = 0
KQU1 201545Z 19009KT 01/M05 A3024 RMK A01 T00141049  RH  063%=      5-min Rain = 0
KQU1 201546Z 19010KT 01/M05 A3024 RMK A01 T00141049  RH  063%=      5-min Rain = 0
KQU1 201547Z 19011KT 02/M05 A3024 RMK A01 T00151050  RH  062%=      5-min Rain = 0
KQU1 201548Z 19013KT 02/M05 A3024 RMK A01 T00151051  RH  062%=      5-min Rain = 0
KQU1 201549Z 19013KT 01/M05 A3024 RMK A01 T00141051  RH  062%=      5-min Rain = 0
KQU1 201550Z 19013KT 01/M05 A3024 RMK A01 T00141051  RH  062%=      5-min Rain = 0
KQU1 201551Z 19014KT 02/M05 A3023 RMK A01 T00151051  RH  061%=      5-min Rain = 0
KQU1 201552Z 19012KT 02/M05 A3023 RMK A01 T00151051  RH  061%=      5-min Rain = 0
KQU1 201553Z 19010KT 02/M05 A3023 RMK A01 T00161050  RH  062%=      5-min Rain = 0
KQU1 201554Z 19013KT 02/M05 A3023 RMK A01 T00171049  RH  062%=      5-min Rain = 0
KQU1 201555Z 19013KT 02/M05 A3023 RMK A01 T00171049  RH  061%=      5-min Rain = 0
KQU1 201556Z 19012KT 02/M05 A3023 RMK A01 T00181048  RH  062%=      5-min Rain = 0
KQU1 201557Z 19013KT 02/M05 A3023 RMK A01 T00181047  RH  062%=      5-min Rain = 0
KQU1 201558Z 19012KT 02/M05 A3023 RMK A01 T00191046  RH  062%=      5-min Rain = 0
KQU1 201559Z 19013KT 02/M05 A3023 RMK A01 T00201046  RH  062%=      5-min Rain = 0
KQU1 201600Z 19012KT 02/M05 A3023 RMK A01 T00211045  RH  062%=      5-min Rain = 0
KQU1 201601Z 19012KT 02/M04 A3023 RMK A01 T00221044  RH  062%=      5-min Rain = 0
KQU1 201602Z 19011KT 02/M04 A3023 RMK A01 T00221044  RH  062%=      5-min Rain = 0
KQU1 201603Z 19012KT 02/M04 A3023 RMK A01 T00231042  RH  062%=      5-min Rain = 0
KQU1 201604Z 19013KT 02/M04 A3023 RMK A01 T00241041  RH  062%=      5-min Rain = 0
KQU1 201605Z 19013KT 03/M04 A3023 RMK A01 T00261040  RH  062%=      5-min Rain = 0
KQU1 201606Z 19011KT 03/M04 A3023 RMK A01 T00271040  RH  061%=      5-min Rain = 0
KQU1 201607Z 19010KT 03/M04 A3023 RMK A01 T00281039  RH  062%=      5-min Rain = 0
KQU1 201608Z 19012KT 03/M04 A3023 RMK A01 T00291039  RH  061%=      5-min Rain = 0
KQU1 201609Z 19011KT 03/M04 A3023 RMK A01 T00301039  RH  061%=      5-min Rain = 0
KQU1 201610Z 20013G18KT 03/M04 A3023 RMK A01 T00311039  RH  060%=      5-min Rain = 0
KQU1 201611Z 20015KT 03/M04 A3023 RMK A01 T00311042  RH  059%=      5-min Rain = 0
KQU1 201612Z 19014KT 03/M04 A3023 RMK A01 T00311042  RH  059%=      5-min Rain = 0
KQU1 201613Z 20015KT 03/M04 A3023 RMK A01 T00311041  RH  059%=      5-min Rain = 0
KQU1 201614Z 20013KT 03/M04 A3022 RMK A01 T00321041  RH  059%=      5-min Rain = 0
KQU1 201615Z 19014KT 03/M04 A3022 RMK A01 T00331040  RH  059%=      5-min Rain = 0
KQU1 201616Z 20014KT 04/M04 A3022 RMK A01 T00351039  RH  059%=      5-min Rain = 0
KQU1 201617Z 20014KT 04/M04 A3022 RMK A01 T00361039  RH  058%=      5-min Rain = 0
KQU1 201618Z 20014KT 04/M04 A3022 RMK A01 T00371038  RH  058%=      5-min Rain = 0
KQU1 201619Z 20014KT 04/M04 A3022 RMK A01 T00381038  RH  058%=      5-min Rain = 0
KQU1 201620Z 20016KT 04/M04 A3022 RMK A01 T00401039  RH  057%=      5-min Rain = 0
KQU1 201621Z 19014KT 04/M04 A3022 RMK A01 T00411038  RH  057%=      5-min Rain = 0
KQU1 201622Z 19015KT 04/M04 A3022 RMK A01 T00431037  RH  056%=      5-min Rain = 0
KQU1 201623Z 19016KT 04/M04 A3022 RMK A01 T00441038  RH  055%=      5-min Rain = 0
KQU1 201624Z 19017KT 04/M04 A3022 RMK A01 T00441039  RH  055%=      5-min Rain = 0
KQU1 201625Z 19016KT 05/M04 A3022 RMK A01 T00451039  RH  055%=      5-min Rain = 0
KQU1 201626Z 19016KT 05/M04 A3022 RMK A01 T00451038  RH  055%=      5-min Rain = 0
KQU1 201627Z 19016KT 05/M04 A3022 RMK A01 T00461038  RH  055%=      5-min Rain = 0
KQU1 201628Z 20017KT 05/M04 A3022 RMK A01 T00471038  RH  054%=      5-min Rain = 0
KQU1 201629Z 20014KT 05/M04 A3022 RMK A01 T00481038  RH  054%=      5-min Rain = 0
KQU1 201630Z 20012KT 05/M04 A3022 RMK A01 T00491037  RH  054%=      5-min Rain = 0
KQU1 201631Z 20014KT 05/M04 A3022 RMK A01 T00501037  RH  053%=      5-min Rain = 0
KQU1 201632Z 20016KT 05/M04 A3022 RMK A01 T00511037  RH  053%=      5-min Rain = 0
KQU1 201633Z 20015KT 05/M04 A3022 RMK A01 T00521038  RH  052%=      5-min Rain = 0
KQU1 201634Z 20013KT 05/M04 A3022 RMK A01 T00531037  RH  052%=      5-min Rain = 0
KQU1 201635Z 19013KT 05/M04 A3022 RMK A01 T00541035  RH  053%=      5-min Rain = 0
KQU1 201636Z 19013KT 06/M04 A3021 RMK A01 T00561035  RH  052%=      5-min Rain = 0
KQU1 201637Z 19016KT 06/M04 A3021 RMK A01 T00571036  RH  051%=      5-min Rain = 0
KQU1 201638Z 19015KT 06/M04 A3021 RMK A01 T00581035  RH  051%=      5-min Rain = 0
KQU1 201639Z 20016KT 06/M03 A3021 RMK A01 T00591034  RH  051%=      5-min Rain = 0
KQU1 201640Z 20017KT 06/M04 A3021 RMK A01 T00601036  RH  050%=      5-min Rain = 0
KQU1 201641Z 19018KT 06/M04 A3021 RMK A01 T00611036  RH  050%=      5-min Rain = 0
KQU1 201642Z 20017KT 06/M04 A3021 RMK A01 T00611036  RH  050%=      5-min Rain = 0
KQU1 201643Z 20016KT 06/M04 A3021 RMK A01 T00621036  RH  049%=      5-min Rain = 0
KQU1 201644Z 20016KT 06/M04 A3021 RMK A01 T00631035  RH  049%=      5-min Rain = 0
KQU1 201645Z 20018KT 06/M04 A3021 RMK A01 T00641036  RH  049%=      5-min Rain = 0
KQU1 201646Z 20017KT 06/M04 A3021 RMK A01 T00641036  RH  049%=      5-min Rain = 0
KQU1 201647Z 20017KT 07/M04 A3021 RMK A01 T00651037  RH  048%=      5-min Rain = 0
KQU1 201648Z 20015KT 07/M04 A3021 RMK A01 T00651035  RH  049%=      5-min Rain = 0
KQU1 201649Z 20017KT 07/M04 A3021 RMK A01 T00661037  RH  048%=      5-min Rain = 0
KQU1 201650Z 19017KT 07/M04 A3021 RMK A01 T00661037  RH  048%=      5-min Rain = 0
KQU1 201651Z 20016KT 07/M04 A3021 RMK A01 T00661037  RH  048%=      5-min Rain = 0
KQU1 201652Z 20016KT 07/M04 A3021 RMK A01 T00671036  RH  048%=      5-min Rain = 0
KQU1 201653Z 19014KT 07/M04 A3021 RMK A01 T00681035  RH  048%=      5-min Rain = 0
KQU1 201654Z 20014KT 07/M04 A3021 RMK A01 T00691035  RH  047%=      5-min Rain = 0
KQU1 201655Z 21015KT 07/M04 A3021 RMK A01 T00691036  RH  047%=      5-min Rain = 0
KQU1 201656Z 21014KT 07/M04 A3021 RMK A01 T00701036  RH  047%=      5-min Rain = 0
KQU1 201657Z 21015KT 07/M04 A3021 RMK A01 T00711035  RH  047%=      5-min Rain = 0
KQU1 201658Z 20013KT 07/M03 A3021 RMK A01 T00721034  RH  047%=      5-min Rain = 0
KQU1 201659Z 20017KT 07/M04 A3021 RMK A01 T00731036  RH  046%=      5-min Rain = 0
KQU1 201700Z 20016KT 07/M04 A3021 RMK A01 T00731036  RH  046%=      5-min Rain = 0
KQU1 201701Z 20017KT 07/M04 A3021 RMK A01 T00731036  RH  046%=      5-min Rain = 0
KQU1 201702Z 20016KT 07/M04 A302 RMK A01 T00731036  RH  046%=      5-min Rain = 0
KQU1 201703Z 21014KT 07/M03 A302 RMK A01 T00741034  RH  046%=      5-min Rain = 0
KQU1 201704Z 20015KT 08/M04 A302 RMK A01 T00761035  RH  045%=      5-min Rain = 0
KQU1 201705Z 20016KT 08/M04 A302 RMK A01 T00761035  RH  045%=      5-min Rain = 0
KQU1 201706Z 21013KT 08/M03 A302 RMK A01 T00771033  RH  046%=      5-min Rain = 0
KQU1 201707Z 21017KT 08/M04 A302 RMK A01 T00781035  RH  045%=      5-min Rain = 0
KQU1 201708Z 20018KT 08/M04 A302 RMK A01 T00781036  RH  044%=      5-min Rain = 0
KQU1 201709Z 20018KT 08/M04 A302 RMK A01 T00781036  RH  044%=      5-min Rain = 0
KQU1 201710Z 19017KT 08/M04 A302 RMK A01 T00801035  RH  044%=      5-min Rain = 0
KQU1 201711Z 19017KT 08/M04 A302 RMK A01 T00801035  RH  044%=      5-min Rain = 0
KQU1 201712Z 18016KT 08/M04 A302 RMK A01 T00811036  RH  044%=      5-min Rain = 0
KQU1 201713Z 20017KT 08/M04 A302 RMK A01 T00821035  RH  043%=      5-min Rain = 0
KQU1 201714Z 21019KT 08/M04 A302 RMK A01 T00821037  RH  043%=      5-min Rain = 0
KQU1 201715Z 20016KT 08/M04 A302 RMK A01 T00821036  RH  043%=      5-min Rain = 0
KQU1 201716Z 20016KT 08/M03 A302 RMK A01 T00831034  RH  043%=      5-min Rain = 0
KQU1 201717Z 19015KT 09/M03 A302 RMK A01 T00861033  RH  043%=      5-min Rain = 0
KQU1 201718Z 19018KT 09/M03 A302 RMK A01 T00881034  RH  042%=      5-min Rain = 0
KQU1 201719Z 19017KT 09/M03 A302 RMK A01 T00881034  RH  042%=      5-min Rain = 0
KQU1 201720Z 20017KT 09/M03 A302 RMK A01 T00901034  RH  042%=      5-min Rain = 0
KQU1 201721Z 21014KT 09/M03 A302 RMK A01 T00901034  RH  042%=      5-min Rain = 0
KQU1 201722Z 20015G20KT 09/M03 A302 RMK A01 T00921032  RH  041%=      5-min Rain = 0
KQU1 201723Z 20019KT 09/M04 A302 RMK A01 T00921036  RH  040%=      5-min Rain = 0
KQU1 201724Z 21015KT 09/M04 A302 RMK A01 T00911035  RH  041%=      5-min Rain = 0
KQU1 201725Z 20017KT 09/M03 A302 RMK A01 T00921034  RH  041%=      5-min Rain = 0
KQU1 201726Z 20019KT 09/M04 A302 RMK A01 T00921036  RH  040%=      5-min Rain = 0
KQU1 201727Z 20015KT 09/M03 A302 RMK A01 T00931033  RH  041%=      5-min Rain = 0
KQU1 201728Z 20016G21KT 10/M03 A302 RMK A01 T00951034  RH  040%=      5-min Rain = 0
KQU1 201729Z 20018KT 10/M03 A302 RMK A01 T00961034  RH  040%=      5-min Rain = 0
KQU1 201730Z 20018KT 10/M04 A302 RMK A01 T00951036  RH  040%=      5-min Rain = 0
KQU1 201731Z 20018KT 10/M04 A302 RMK A01 T00951036  RH  040%=      5-min Rain = 0
KQU1 201732Z 20017KT 10/M04 A302 RMK A01 T00951036  RH  040%=      5-min Rain = 0
KQU1 201733Z 20018KT 10/M04 A302 RMK A01 T00961035  RH  040%=      5-min Rain = 0
KQU1 201734Z 20015KT 10/M03 A302 RMK A01 T00961034  RH  040%=      5-min Rain = 0
KQU1 201735Z 19016KT 10/M04 A302 RMK A01 T00971035  RH  039%=      5-min Rain = 0
KQU1 201736Z 19015KT 10/M03 A302 RMK A01 T00971034  RH  039%=      5-min Rain = 0
KQU1 201737Z 19015KT 10/M03 A302 RMK A01 T00981034  RH  039%=      5-min Rain = 0
KQU1 201738Z 20015KT 10/M04 A302 RMK A01 T00981035  RH  039%=      5-min Rain = 0
KQU1 201739Z 20014KT 10/M03 A302 RMK A01 T00981033  RH  040%=      5-min Rain = 0
KQU1 201740Z 20013KT 10/M04 A302 RMK A01 T00981035  RH  039%=      5-min Rain = 0
KQU1 201741Z 21013KT 10/M04 A302 RMK A01 T00981035  RH  039%=      5-min Rain = 0
KQU1 201742Z 19013KT 10/M04 A302 RMK A01 T00981035  RH  039%=      5-min Rain = 0
KQU1 201743Z 19015KT 10/M03 A302 RMK A01 T00981034  RH  039%=      5-min Rain = 0
KQU1 201744Z 19013KT 10/M03 A302 RMK A01 T00981034  RH  039%=      5-min Rain = 0
KQU1 201745Z 19015KT 10/M04 A302 RMK A01 T00981036  RH  039%=      5-min Rain = 0
KQU1 201746Z 20015KT 10/M04 A302 RMK A01 T00971036  RH  039%=      5-min Rain = 0
KQU1 201747Z 20014KT 10/M04 A302 RMK A01 T00971036  RH  039%=      5-min Rain = 0
KQU1 201748Z 19014G21KT 10/M03 A302 RMK A01 T00981034  RH  039%=      5-min Rain = 0
KQU1 201749Z 20014KT 10/M04 A302 RMK A01 T00991036  RH  039%=      5-min Rain = 0
KQU1 201750Z 20014KT 10/M04 A3019 RMK A01 T00981036  RH  039%=      5-min Rain = 0
KQU1 201751Z 19013KT 10/M03 A3019 RMK A01 T01001032  RH  039%=      5-min Rain = 0
KQU1 201752Z 19014KT 10/M03 A3019 RMK A01 T01021033  RH  039%=      5-min Rain = 0
KQU1 201753Z 19014KT 10/M03 A3019 RMK A01 T01021033  RH  038%=      5-min Rain = 0
KQU1 201754Z 20016KT 10/M04 A3019 RMK A01 T01021035  RH  038%=      5-min Rain = 0
KQU1 201755Z 20016KT 10/M04 A3019 RMK A01 T01021035  RH  038%=      5-min Rain = 0
KQU1 201756Z 21014KT 10/M03 A3019 RMK A01 T01021034  RH  038%=      5-min Rain = 0
KQU1 201757Z 21014KT 10/M04 A3019 RMK A01 T01021035  RH  038%=      5-min Rain = 0
KQU1 201758Z 19015KT 10/M04 A3019 RMK A01 T01021035  RH  038%=      5-min Rain = 0
KQU1 201759Z 19014KT 10/M03 A3019 RMK A01 T01011034  RH  039%=      5-min Rain = 0
KQU1 201800Z 19013KT 10/M03 A3019 RMK A01 T01021032  RH  039%=      5-min Rain = 0
KQU1 201801Z 19011KT 10/M03 A3019 RMK A01 T01031034  RH  038%=      5-min Rain = 0
KQU1 201802Z 20013KT 11/M03 A3019 RMK A01 T01051031  RH  038%=      5-min Rain = 0
KQU1 201803Z 19012KT 11/M03 A3019 RMK A01 T01071030  RH  038%=      5-min Rain = 0
KQU1 201804Z 19013KT 11/M03 A3019 RMK A01 T01091031  RH  037%=      5-min Rain = 0
KQU1 201805Z 19013KT 11/M03 A3019 RMK A01 T01091033  RH  037%=      5-min Rain = 0
KQU1 201806Z 20014KT 11/M03 A3019 RMK A01 T01091032  RH  037%=      5-min Rain = 0
KQU1 201807Z 19013KT 11/M03 A3019 RMK A01 T01101031  RH  037%=      5-min Rain = 0
KQU1 201808Z 20012KT 11/M03 A3018 RMK A01 T01111031  RH  037%=      5-min Rain = 0
KQU1 201809Z 21011KT 11/M03 A3018 RMK A01 T01121031  RH  037%=      5-min Rain = 0
KQU1 201810Z 20013KT 11/M03 A3018 RMK A01 T01131033  RH  036%=      5-min Rain = 0
KQU1 201811Z 19013KT 11/M03 A3018 RMK A01 T01131032  RH  036%=      5-min Rain = 0
KQU1 201812Z 19013KT 11/M03 A3018 RMK A01 T01131034  RH  036%=      5-min Rain = 0
KQU1 201813Z 18013KT 11/M03 A3018 RMK A01 T01121033  RH  036%=      5-min Rain = 0
KQU1 201814Z 19017KT 11/M03 A3018 RMK A01 T01141032  RH  036%=      5-min Rain = 0
KQU1 201815Z 20017KT 12/M04 A3018 RMK A01 T01151036  RH  035%=      5-min Rain = 0
KQU1 201816Z 20015KT 12/M04 A3018 RMK A01 T01161035  RH  035%=      5-min Rain = 0
KQU1 201817Z 20013KT 12/M03 A3018 RMK A01 T01161034  RH  035%=      5-min Rain = 0
KQU1 201818Z 19015KT 12/M03 A3018 RMK A01 T01171034  RH  035%=      5-min Rain = 0
KQU1 201819Z 20016KT 12/M04 A3018 RMK A01 T01171036  RH  034%=      5-min Rain = 0
KQU1 201820Z 20017G26KT 12/M03 A3017 RMK A01 T01171034  RH  035%=      5-min Rain = 0
KQU1 201821Z 21013KT 12/M03 A3018 RMK A01 T01191032  RH  035%=      5-min Rain = 0
KQU1 201822Z 20016KT 12/M03 A3017 RMK A01 T01211034  RH  034%=      5-min Rain = 0
KQU1 201823Z 20014KT 12/M04 A3017 RMK A01 T01211035  RH  033%=      5-min Rain = 0
KQU1 201824Z 20014KT 12/M04 A3017 RMK A01 T01201036  RH  034%=      5-min Rain = 0
KQU1 201825Z 21013KT 12/M04 A3017 RMK A01 T01191035  RH  034%=      5-min Rain = 0
KQU1 201826Z 19014KT 12/M04 A3017 RMK A01 T01181035  RH  034%=      5-min Rain = 0
KQU1 201827Z 20015KT 12/M04 A3017 RMK A01 T01191036  RH  034%=      5-min Rain = 0
KQU1 201828Z 20014KT 12/M04 A3017 RMK A01 T01191037  RH  034%=      5-min Rain = 0
KQU1 201829Z 20015KT 12/M04 A3017 RMK A01 T01201036  RH  034%=      5-min Rain = 0
KQU1 201830Z 20016KT 12/M04 A3017 RMK A01 T01201036  RH  033%=      5-min Rain = 0
KQU1 201831Z 20013KT 12/M04 A3017 RMK A01 T01201038  RH  033%=      5-min Rain = 0
KQU1 201832Z 19011KT 12/M04 A3017 RMK A01 T01211036  RH  033%=      5-min Rain = 0
KQU1 201833Z 20013KT 12/M04 A3017 RMK A01 T01221035  RH  033%=      5-min Rain = 0
KQU1 201834Z 21016KT 12/M04 A3017 RMK A01 T01231037  RH  032%=      5-min Rain = 0
KQU1 201835Z 21016KT 12/M04 A3017 RMK A01 T01241040  RH  032%=      5-min Rain = 0
KQU1 201836Z 19014KT 12/M04 A3017 RMK A01 T01231038  RH  032%=      5-min Rain = 0
KQU1 201837Z 20016KT 12/M04 A3017 RMK A01 T01231039  RH  032%=      5-min Rain = 0
KQU1 201838Z 20015KT 12/M04 A3017 RMK A01 T01231039  RH  032%=      5-min Rain = 0
KQU1 201839Z 20016KT 13/M04 A3017 RMK A01 T01251037  RH  032%=      5-min Rain = 0
KQU1 201840Z 20015KT 13/M04 A3017 RMK A01 T01251037  RH  032%=      5-min Rain = 0
KQU1 201841Z 21014KT 13/M04 A3016 RMK A01 T01251038  RH  032%=      5-min Rain = 0
KQU1 201842Z 21014KT 13/M04 A3016 RMK A01 T01261036  RH  032%=      5-min Rain = 0
KQU1 201843Z 21013KT 13/M04 A3016 RMK A01 T01261035  RH  032%=      5-min Rain = 0
KQU1 201844Z 20011KT 13/M04 A3016 RMK A01 T01271036  RH  032%=      5-min Rain = 0
KQU1 201845Z 22010KT 13/M04 A3016 RMK A01 T01281035  RH  032%=      5-min Rain = 0
KQU1 201846Z 21009KT 13/M04 A3016 RMK A01 T01291036  RH  032%=      5-min Rain = 0
KQU1 201847Z 21014KT 13/M04 A3016 RMK A01 T01301036  RH  031%=      5-min Rain = 0
KQU1 201848Z 21013KT 13/M04 A3016 RMK A01 T01291038  RH  031%=      5-min Rain = 0
KQU1 201849Z 20009KT 13/M04 A3016 RMK A01 T01291036  RH  032%=      5-min Rain = 0
KQU1 201850Z 19011KT 13/M04 A3016 RMK A01 T01301036  RH  031%=      5-min Rain = 0
KQU1 201851Z 21011KT 13/M04 A3015 RMK A01 T01301037  RH  031%=      5-min Rain = 0
KQU1 201852Z 19012KT 13/M04 A3015 RMK A01 T01311036  RH  031%=      5-min Rain = 0
KQU1 201853Z 20014KT 13/M04 A3015 RMK A01 T01331037  RH  030%=      5-min Rain = 0
KQU1 201854Z 19014KT 13/M04 A3015 RMK A01 T01341036  RH  030%=      5-min Rain = 0
KQU1 201855Z 21011G17KT 14/M04 A3015 RMK A01 T01351036  RH  030%=      5-min Rain = 0
KQU1 201856Z 22012KT 14/M04 A3015 RMK A01 T01361039  RH  029%=      5-min Rain = 0
KQU1 201857Z 22014KT 14/M04 A3015 RMK A01 T01361042  RH  029%=      5-min Rain = 0
KQU1 201858Z 21012KT 14/M04 A3015 RMK A01 T01361039  RH  030%=      5-min Rain = 0
KQU1 201859Z 19011KT 14/M04 A3015 RMK A01 T01371038  RH  029%=      5-min Rain = 0
KQU1 201900Z 21012KT 14/M04 A3015 RMK A01 T01381039  RH  029%=      5-min Rain = 0
KQU1 201901Z 20016KT 14/M04 A3014 RMK A01 T01381036  RH  030%=      5-min Rain = 0
KQU1 201902Z 21016KT 14/M04 A3014 RMK A01 T01371039  RH  029%=      5-min Rain = 0
KQU1 201903Z 20014KT 14/M04 A3014 RMK A01 T01361039  RH  029%=      5-min Rain = 0
KQU1 201904Z 21015KT 14/M04 A3014 RMK A01 T01351039  RH  030%=      5-min Rain = 0
KQU1 201905Z 20011KT 14/M04 A3014 RMK A01 T01351039  RH  030%=      5-min Rain = 0
KQU1 201906Z 20009KT 14/M04 A3014 RMK A01 T01351038  RH  030%=      5-min Rain = 0
KQU1 201907Z 21011KT 14/M04 A3014 RMK A01 T01361037  RH  030%=      5-min Rain = 0
KQU1 201908Z 21012KT 14/M04 A3014 RMK A01 T01371036  RH  030%=      5-min Rain = 0
KQU1 201909Z 19013KT 14/M04 A3014 RMK A01 T01371039  RH  029%=      5-min Rain = 0
KQU1 201910Z 19014KT 14/M04 A3013 RMK A01 T01361039  RH  029%=      5-min Rain = 0
KQU1 201911Z 20014KT 14/M04 A3013 RMK A01 T01351039  RH  030%=      5-min Rain = 0
KQU1 201912Z 21015KT 14/M04 A3013 RMK A01 T01371038  RH  030%=      5-min Rain = 0
KQU1 201913Z 20014KT 14/M04 A3013 RMK A01 T01361041  RH  029%=      5-min Rain = 0
KQU1 201914Z 20013KT 14/M04 A3013 RMK A01 T01361040  RH  029%=      5-min Rain = 0
KQU1 201915Z 20012KT 14/M04 A3013 RMK A01 T01361039  RH  029%=      5-min Rain = 0
KQU1 201916Z 21013KT 14/M04 A3013 RMK A01 T01371038  RH  029%=      5-min Rain = 0
KQU1 201917Z 20015KT 14/M04 A3013 RMK A01 T01371038  RH  030%=      5-min Rain = 0
KQU1 201918Z 21009KT 14/M04 A3013 RMK A01 T01361040  RH  029%=      5-min Rain = 0
KQU1 201919Z 20012KT 14/M04 A3013 RMK A01 T01351039  RH  030%=      5-min Rain = 0
KQU1 201920Z 18013KT 14/M04 A3013 RMK A01 T01361040  RH  029%=      5-min Rain = 0
KQU1 201921Z 19012G17KT 14/M04 A3013 RMK A01 T01371038  RH  029%=      5-min Rain = 0
KQU1 201922Z 20012KT 14/M04 A3013 RMK A01 T01391038  RH  029%=      5-min Rain = 0
KQU1 201923Z 20012KT 14/M04 A3013 RMK A01 T01401041  RH  028%=      5-min Rain = 0
KQU1 201924Z 21011KT 14/M04 A3013 RMK A01 T01391040  RH  029%=      5-min Rain = 0
KQU1 201925Z 21013KT 14/M04 A3013 RMK A01 T01401040  RH  028%=      5-min Rain = 0
KQU1 201926Z 20014KT 14/M04 A3013 RMK A01 T01381044  RH  028%=      5-min Rain = 0
KQU1 201927Z 20014KT 14/M04 A3013 RMK A01 T01361043  RH  029%=      5-min Rain = 0
KQU1 201928Z 20015KT 14/M04 A3012 RMK A01 T01371040  RH  029%=      5-min Rain = 0
KQU1 201929Z 21014KT 14/M04 A3012 RMK A01 T01391038  RH  029%=      5-min Rain = 0
KQU1 201930Z 21014KT 14/M04 A3012 RMK A01 T01401040  RH  028%=      5-min Rain = 0
KQU1 201931Z 20014KT 14/M04 A3012 RMK A01 T01401040  RH  029%=      5-min Rain = 0
KQU1 201932Z 20014KT 14/M04 A3012 RMK A01 T01421041  RH  028%=      5-min Rain = 0
KQU1 201933Z 22012KT 14/M04 A3012 RMK A01 T01421042  RH  028%=      5-min Rain = 0
KQU1 201934Z 23012KT 14/M04 A3012 RMK A01 T01441039  RH  028%=      5-min Rain = 0
KQU1 201935Z 23009KT 14/M04 A3012 RMK A01 T01441040  RH  028%=      5-min Rain = 0
KQU1 201936Z 21009KT 15/M04 A3012 RMK A01 T01461037  RH  028%=      5-min Rain = 0
KQU1 201937Z 19009KT 15/M04 A3012 RMK A01 T01471038  RH  028%=      5-min Rain = 0
KQU1 201938Z 22010KT 15/M04 A3012 RMK A01 T01471038  RH  028%=      5-min Rain = 0
KQU1 201939Z 20009KT 15/M04 A3012 RMK A01 T01471036  RH  028%=      5-min Rain = 0
KQU1 201940Z 21011KT 15/M04 A3012 RMK A01 T01471040  RH  027%=      5-min Rain = 0
KQU1 201941Z 19012G17KT 15/M04 A3012 RMK A01 T01451041  RH  028%=      5-min Rain = 0
KQU1 201942Z 20014KT 15/M04 A3011 RMK A01 T01451038  RH  028%=      5-min Rain = 0
KQU1 201943Z 20013G18KT 14/M04 A3011 RMK A01 T01441039  RH  028%=      5-min Rain = 0
KQU1 201944Z 20010KT 15/M04 A3011 RMK A01 T01451037  RH  028%=      5-min Rain = 0
KQU1 201945Z 21010KT 15/M04 A3011 RMK A01 T01451038  RH  028%=      5-min Rain = 0
KQU1 201946Z 23012KT 15/M04 A3011 RMK A01 T01461039  RH  028%=      5-min Rain = 0
KQU1 201947Z 20010KT 15/M04 A3011 RMK A01 T01461038  RH  028%=      5-min Rain = 0
KQU1 201948Z 21008KT 15/M04 A3011 RMK A01 T01471038  RH  028%=      5-min Rain = 0
KQU1 201949Z 22009KT 15/M04 A3011 RMK A01 T01461039  RH  028%=      5-min Rain = 0
KQU1 201950Z 21009KT 15/M04 A3011 RMK A01 T01461036  RH  028%=      5-min Rain = 0
KQU1 201951Z 20013KT 15/M04 A3011 RMK A01 T01471037  RH  028%=      5-min Rain = 0
KQU1 201952Z 20015KT 15/M04 A3011 RMK A01 T01461039  RH  028%=      5-min Rain = 0
KQU1 201953Z 20013KT 15/M04 A3011 RMK A01 T01451038  RH  028%=      5-min Rain = 0
KQU1 201954Z 21009KT 15/M04 A3011 RMK A01 T01451037  RH  028%=      5-min Rain = 0
KQU1 201955Z 21011KT 15/M04 A301 RMK A01 T01451036  RH  028%=      5-min Rain = 0
KQU1 201956Z 21012KT 15/M04 A301 RMK A01 T01451039  RH  028%=      5-min Rain = 0
KQU1 201957Z 21009KT 14/M04 A301 RMK A01 T01431039  RH  028%=      5-min Rain = 0
KQU1 201958Z 20010KT 14/M04 A301 RMK A01 T01421038  RH  029%=      5-min Rain = 0
KQU1 201959Z 19009KT 14/M04 A3011 RMK A01 T01431038  RH  028%=      5-min Rain = 0
KQU1 202000Z 19010KT 14/M04 A3011 RMK A01 T01421039  RH  028%=      5-min Rain = 0
KQU1 202001Z 19010KT 14/M04 A3011 RMK A01 T01421039  RH  028%=      5-min Rain = 0
KQU1 202002Z 19010KT 14/M04 A301 RMK A01 T01421038  RH  028%=      5-min Rain = 0
KQU1 202003Z 19008KT 14/M04 A301 RMK A01 T01431039  RH  028%=      5-min Rain = 0
KQU1 202004Z 21008KT 14/M04 A301 RMK A01 T01431038  RH  028%=      5-min Rain = 0
KQU1 202005Z 20006KT 14/M04 A301 RMK A01 T01441038  RH  028%=      5-min Rain = 0
KQU1 202006Z 18006KT 14/M04 A301 RMK A01 T01441039  RH  028%=      5-min Rain = 0
KQU1 202007Z 20007KT 15/M04 A301 RMK A01 T01451038  RH  028%=      5-min Rain = 0
KQU1 202008Z 18010KT 15/M04 A301 RMK A01 T01451039  RH  028%=      5-min Rain = 0
KQU1 202009Z 19011KT 14/M04 A301 RMK A01 T01441039  RH  028%=      5-min Rain = 0
KQU1 202010Z 20009KT 14/M04 A301 RMK A01 T01431040  RH  028%=      5-min Rain = 0
KQU1 202011Z 20007KT 14/M04 A301 RMK A01 T01421041  RH  028%=      5-min Rain = 0
KQU1 202012Z 19008KT 14/M04 A301 RMK A01 T01421039  RH  028%=      5-min Rain = 0
KQU1 202013Z 19007KT 14/M04 A301 RMK A01 T01431038  RH  028%=      5-min Rain = 0
KQU1 202014Z 19009KT 14/M04 A301 RMK A01 T01441037  RH  028%=      5-min Rain = 0
KQU1 202015Z 20008KT 14/M04 A301 RMK A01 T01441039  RH  028%=      5-min Rain = 0
KQU1 202016Z 19008KT 15/M04 A301 RMK A01 T01451035  RH  029%=      5-min Rain = 0
KQU1 202017Z 18007KT 15/M04 A301 RMK A01 T01461035  RH  028%=      5-min Rain = 0
KQU1 202018Z 17009KT 15/M04 A301 RMK A01 T01471036  RH  028%=      5-min Rain = 0
KQU1 202019Z 17008KT 15/M03 A301 RMK A01 T01491033  RH  028%=      5-min Rain = 0
KQU1 202020Z 18007KT 15/M04 A301 RMK A01 T01511035  RH  028%=      5-min Rain = 0
KQU1 202021Z 16007KT 15/M04 A301 RMK A01 T01511035  RH  028%=      5-min Rain = 0
KQU1 202022Z 16010KT 15/M03 A301 RMK A01 T01531034  RH  027%=      5-min Rain = 0
KQU1 202023Z 16008KT 15/M04 A301 RMK A01 T01541036  RH  027%=      5-min Rain = 0
KQU1 202024Z 17008KT 16/M03 A301 RMK A01 T01551034  RH  027%=      5-min Rain = 0
KQU1 202025Z 18009KT 16/M03 A301 RMK A01 T01561034  RH  027%=      5-min Rain = 0
KQU1 202026Z 19009KT 16/M04 A301 RMK A01 T01571036  RH  026%=      5-min Rain = 0
KQU1 202027Z 18008KT 16/M03 A301 RMK A01 T01581032  RH  027%=      5-min Rain = 0
KQU1 202028Z 20007KT 16/M03 A3009 RMK A01 T01601032  RH  027%=      5-min Rain = 0
KQU1 202029Z 20008KT 16/M04 A3009 RMK A01 T01611040  RH  025%=      5-min Rain = 0
KQU1 202030Z 22006KT 16/M04 A3009 RMK A01 T01621039  RH  025%=      5-min Rain = 0
KQU1 202031Z 23008KT 16/M04 A3009 RMK A01 T01631041  RH  024%=      5-min Rain = 0
KQU1 202032Z 21005KT 16/M04 A3009 RMK A01 T01621042  RH  024%=      5-min Rain = 0
KQU1 202033Z 21007KT 16/M04 A3009 RMK A01 T01621042  RH  024%=      5-min Rain = 0
KQU1 202034Z 19010KT 16/M04 A3009 RMK A01 T01611040  RH  025%=      5-min Rain = 0
KQU1 202035Z 20007KT 16/M04 A3009 RMK A01 T01611041  RH  025%=      5-min Rain = 0
KQU1 202036Z 19011KT 16/M04 A3009 RMK A01 T01601041  RH  025%=      5-min Rain = 0
KQU1 202037Z 19011KT 16/M04 A3009 RMK A01 T01601041  RH  025%=      5-min Rain = 0
KQU1 202038Z 19006KT 16/M04 A3009 RMK A01 T01601039  RH  025%=      5-min Rain = 0
KQU1 202039Z 17007KT 16/M04 A3009 RMK A01 T01631038  RH  025%=      5-min Rain = 0
KQU1 202040Z 16006KT 17/M04 A3009 RMK A01 T01661038  RH  024%=      5-min Rain = 0
KQU1 202041Z 17006KT 17/M04 A3009 RMK A01 T01681039  RH  024%=      5-min Rain = 0
KQU1 202042Z 19006KT 17/M04 A3009 RMK A01 T01681042  RH  023%=      5-min Rain = 0
KQU1 202043Z 21005KT 17/M04 A3009 RMK A01 T01681043  RH  023%=      5-min Rain = 0
KQU1 202044Z 20004KT 17/M04 A3009 RMK A01 T01681044  RH  023%=      5-min Rain = 0
KQU1 202045Z 19007G12KT 17/M04 A3008 RMK A01 T01681042  RH  023%=      5-min Rain = 0
KQU1 202046Z 18011KT 17/M04 A3009 RMK A01 T01681042  RH  023%=      5-min Rain = 0
KQU1 202047Z 18007KT 17/M04 A3008 RMK A01 T01661042  RH  024%=      5-min Rain = 0
KQU1 202048Z 16003KT 17/M04 A3008 RMK A01 T01661043  RH  024%=      5-min Rain = 0
KQU1 202049Z 16006KT 17/M04 A3008 RMK A01 T01671040  RH  024%=      5-min Rain = 0
KQU1 202050Z 17008KT 17/M04 A3008 RMK A01 T01681039  RH  024%=      5-min Rain = 0
KQU1 202051Z 17007KT 17/M04 A3008 RMK A01 T01691038  RH  024%=      5-min Rain = 0
KQU1 202052Z 19006KT 17/M04 A3008 RMK A01 T01691037  RH  024%=      5-min Rain = 0
KQU1 202053Z 18007KT 17/M04 A3008 RMK A01 T01691037  RH  024%=      5-min Rain = 0
KQU1 202054Z 19009KT 17/M04 A3008 RMK A01 T01691039  RH  024%=      5-min Rain = 0
KQU1 202055Z 20009KT 17/M04 A3008 RMK A01 T01691042  RH  023%=      5-min Rain = 0
KQU1 202056Z 20007KT 17/M05 A3008 RMK A01 T01691045  RH  023%=      5-min Rain = 0
KQU1 202057Z 20010KT 17/M05 A3008 RMK A01 T01681047  RH  023%=      5-min Rain = 0
KQU1 202058Z 19014KT 17/M05 A3008 RMK A01 T01671049  RH  022%=      5-min Rain = 0
KQU1 202059Z 20012KT 17/M05 A3008 RMK A01 T01661048  RH  023%=      5-min Rain = 0
KQU1 202100Z 19011KT 17/M05 A3007 RMK A01 T01661047  RH  023%=      5-min Rain = 0
KQU1 202101Z 19012KT 17/M05 A3007 RMK A01 T01681047  RH  023%=      5-min Rain = 0
KQU1 202102Z 20010KT 17/M05 A3007 RMK A01 T01681046  RH  023%=      5-min Rain = 0
KQU1 202103Z 20013KT 17/M05 A3007 RMK A01 T01701046  RH  022%=      5-min Rain = 0
KQU1 202104Z 20013KT 17/M05 A3007 RMK A01 T01701048  RH  022%=      5-min Rain = 0
KQU1 202105Z 20012KT 17/M05 A3007 RMK A01 T01691048  RH  022%=      5-min Rain = 0
KQU1 202106Z 19013KT 17/M05 A3007 RMK A01 T01671050  RH  022%=      5-min Rain = 0
KQU1 202107Z 20012KT 17/M05 A3007 RMK A01 T01651050  RH  022%=      5-min Rain = 0
KQU1 202108Z 20011KT 16/M05 A3007 RMK A01 T01641049  RH  023%=      5-min Rain = 0
KQU1 202109Z 21010KT 16/M05 A3007 RMK A01 T01631048  RH  023%=      5-min Rain = 0
KQU1 202110Z 19011KT 16/M05 A3007 RMK A01 T01631048  RH  023%=      5-min Rain = 0
KQU1 202111Z 20011KT 16/M05 A3007 RMK A01 T01621049  RH  023%=      5-min Rain = 0
KQU1 202112Z 19011KT 16/M05 A3007 RMK A01 T01601050  RH  023%=      5-min Rain = 0
KQU1 202113Z 19012KT 16/M05 A3007 RMK A01 T01591049  RH  024%=      5-min Rain = 0
KQU1 202114Z 19011KT 16/M05 A3007 RMK A01 T01581049  RH  024%=      5-min Rain = 0
KQU1 202115Z 19011KT 16/M05 A3007 RMK A01 T01571048  RH  024%=      5-min Rain = 0
KQU1 202116Z 20011KT 16/M05 A3007 RMK A01 T01571048  RH  024%=      5-min Rain = 0
KQU1 202117Z 20011KT 16/M05 A3007 RMK A01 T01581047  RH  024%=      5-min Rain = 0
KQU1 202118Z 19011KT 16/M05 A3007 RMK A01 T01581047  RH  024%=      5-min Rain = 0
KQU1 202119Z 19012KT 16/M05 A3007 RMK A01 T01591047  RH  024%=      5-min Rain = 0
KQU1 202120Z 19009KT 16/M05 A3007 RMK A01 T01601046  RH  024%=      5-min Rain = 0
KQU1 202121Z 20011KT 16/M05 A3007 RMK A01 T01611047  RH  024%=      5-min Rain = 0
KQU1 202122Z 19011KT 16/M05 A3007 RMK A01 T01611047  RH  024%=      5-min Rain = 0
KQU1 202123Z 19013KT 16/M05 A3007 RMK A01 T01611048  RH  023%=      5-min Rain = 0
KQU1 202124Z 19013KT 16/M05 A3007 RMK A01 T01611049  RH  023%=      5-min Rain = 0
KQU1 202125Z 19013KT 16/M05 A3007 RMK A01 T01601048  RH  024%=      5-min Rain = 0
KQU1 202126Z 20012KT 16/M05 A3007 RMK A01 T01601047  RH  024%=      5-min Rain = 0
KQU1 202127Z 20010KT 16/M05 A3007 RMK A01 T01591048  RH  024%=      5-min Rain = 0
KQU1 202128Z 19011KT 16/M05 A3007 RMK A01 T01601046  RH  024%=      5-min Rain = 0
KQU1 202129Z 21008KT 16/M04 A3007 RMK A01 T01631044  RH  024%=      5-min Rain = 0
KQU1 202130Z 21008KT 17/M04 A3007 RMK A01 T01651044  RH  023%=      5-min Rain = 0
KQU1 202131Z 20010KT 17/M05 A3007 RMK A01 T01661046  RH  023%=      5-min Rain = 0
KQU1 202132Z 21009KT 17/M05 A3007 RMK A01 T01651046  RH  023%=      5-min Rain = 0
KQU1 202133Z 21010KT 17/M05 A3007 RMK A01 T01661045  RH  023%=      5-min Rain = 0
KQU1 202134Z 20008KT 17/M05 A3007 RMK A01 T01661048  RH  023%=      5-min Rain = 0
KQU1 202135Z 19006KT 17/M05 A3007 RMK A01 T01651047  RH  023%=      5-min Rain = 0
KQU1 202136Z 19009KT 17/M05 A3007 RMK A01 T01661046  RH  023%=      5-min Rain = 0
KQU1 202137Z 21008KT 17/M05 A3007 RMK A01 T01661045  RH  023%=      5-min Rain = 0
KQU1 202138Z 18011KT 17/M05 A3007 RMK A01 T01671045  RH  023%=      5-min Rain = 0
KQU1 202139Z 18012KT 17/M05 A3007 RMK A01 T01681045  RH  023%=      5-min Rain = 0
KQU1 202140Z 21013KT 17/M05 A3007 RMK A01 T01681045  RH  023%=      5-min Rain = 0
KQU1 202141Z 20014KT 17/M05 A3007 RMK A01 T01671046  RH  023%=      5-min Rain = 0
KQU1 202142Z 20010KT 17/M04 A3007 RMK A01 T01661044  RH  023%=      5-min Rain = 0
KQU1 202143Z 21013KT 17/M04 A3007 RMK A01 T01661043  RH  024%=      5-min Rain = 0
KQU1 202144Z 21010KT 17/M04 A3007 RMK A01 T01661043  RH  024%=      5-min Rain = 0
KQU1 202145Z 22010KT 17/M04 A3007 RMK A01 T01661042  RH  024%=      5-min Rain = 0
KQU1 202146Z 22013KT 17/M04 A3007 RMK A01 T01671042  RH  024%=      5-min Rain = 0
KQU1 202147Z 22010KT 17/M04 A3007 RMK A01 T01661043  RH  023%=      5-min Rain = 0
KQU1 202148Z 22011KT 17/M04 A3007 RMK A01 T01661042  RH  024%=      5-min Rain = 0
KQU1 202149Z 22009KT 17/M04 A3007 RMK A01 T01661044  RH  023%=      5-min Rain = 0
KQU1 202150Z 22008KT 17/M04 A3007 RMK A01 T01651044  RH  024%=      5-min Rain = 0
KQU1 202151Z 21007KT 17/M04 A3007 RMK A01 T01651042  RH  024%=      5-min Rain = 0
KQU1 202152Z 20012KT 17/M04 A3007 RMK A01 T01661041  RH  024%=      5-min Rain = 0
KQU1 202153Z 19013KT 17/M04 A3007 RMK A01 T01661043  RH  024%=      5-min Rain = 0
KQU1 202154Z 19010KT 17/M04 A3006 RMK A01 T01651043  RH  024%=      5-min Rain = 0
KQU1 202155Z 19009KT 17/M04 A3006 RMK A01 T01651042  RH  024%=      5-min Rain = 0
KQU1 202156Z 19010KT 17/M04 A3006 RMK A01 T01661042  RH  024%=      5-min Rain = 0
KQU1 202157Z 20011KT 17/M04 A3006 RMK A01 T01671041  RH  024%=      5-min Rain = 0
KQU1 202158Z 19013KT 17/M04 A3006 RMK A01 T01681042  RH  024%=      5-min Rain = 0
KQU1 202159Z 19013KT 17/M04 A3006 RMK A01 T01671043  RH  023%=      5-min Rain = 0
KQU1 202200Z 19012KT 17/M04 A3006 RMK A01 T01661043  RH  024%=      5-min Rain = 0
KQU1 202201Z 20011KT 17/M04 A3006 RMK A01 T01661043  RH  024%=      5-min Rain = 0
KQU1 202202Z 18012KT 17/M04 A3006 RMK A01 T01661042  RH  024%=      5-min Rain = 0
KQU1 202203Z 17012KT 17/M04 A3006 RMK A01 T01661044  RH  023%=      5-min Rain = 0
KQU1 202204Z 18010KT 17/M04 A3006 RMK A01 T01661044  RH  023%=      5-min Rain = 0
KQU1 202205Z 18010KT 17/M04 A3006 RMK A01 T01661043  RH  024%=      5-min Rain = 0
KQU1 202206Z 18012KT 17/M04 A3006 RMK A01 T01661042  RH  024%=      5-min Rain = 0
KQU1 202207Z 17013KT 17/M04 A3006 RMK A01 T01661043  RH  023%=      5-min Rain = 0
KQU1 202208Z 18013KT 17/M04 A3006 RMK A01 T01661043  RH  024%=      5-min Rain = 0
KQU1 202209Z 18013KT 17/M04 A3006 RMK A01 T01661043  RH  024%=      5-min Rain = 0
KQU1 202210Z 18011KT 17/M04 A3006 RMK A01 T01661043  RH  024%=      5-min Rain = 0
KQU1 202211Z 17011KT 17/M04 A3006 RMK A01 T01671042  RH  024%=      5-min Rain = 0
KQU1 202212Z 17008KT 17/M04 A3006 RMK A01 T01671042  RH  024%=      5-min Rain = 0
KQU1 202213Z 19009KT 17/M04 A3006 RMK A01 T01681042  RH  023%=      5-min Rain = 0
KQU1 202214Z 19011KT 17/M04 A3006 RMK A01 T01671042  RH  024%=      5-min Rain = 0
KQU1 202215Z 19014KT 17/M04 A3006 RMK A01 T01671043  RH  024%=      5-min Rain = 0
KQU1 202216Z 19011KT 17/M04 A3006 RMK A01 T01661042  RH  024%=      5-min Rain = 0
KQU1 202217Z 19011KT 17/M04 A3006 RMK A01 T01661041  RH  024%=      5-min Rain = 0
KQU1 202218Z 18011KT 17/M04 A3006 RMK A01 T01671041  RH  024%=      5-min Rain = 0
KQU1 202219Z 19013KT 17/M04 A3006 RMK A01 T01671042  RH  024%=      5-min Rain = 0
KQU1 202220Z 19011KT 17/M04 A3006 RMK A01 T01671042  RH  024%=      5-min Rain = 0
KQU1 202221Z 17010KT 17/M04 A3006 RMK A01 T01661042  RH  024%=      5-min Rain = 0
KQU1 202222Z 17009KT 17/M04 A3006 RMK A01 T01671041  RH  024%=      5-min Rain = 0
KQU1 202223Z 16009KT 17/M04 A3006 RMK A01 T01671041  RH  024%=      5-min Rain = 0
KQU1 202224Z 16012KT 17/M04 A3005 RMK A01 T01671041  RH  024%=      5-min Rain = 0
KQU1 202225Z 18012KT 17/M04 A3005 RMK A01 T01671041  RH  024%=      5-min Rain = 0
KQU1 202226Z 18011KT 17/M04 A3005 RMK A01 T01661042  RH  024%=      5-min Rain = 0
KQU1 202227Z 19009KT 17/M04 A3005 RMK A01 T01661041  RH  024%=      5-min Rain = 0
KQU1 202228Z 18009KT 17/M04 A3005 RMK A01 T01651042  RH  024%=      5-min Rain = 0
KQU1 202229Z 19009KT 16/M04 A3005 RMK A01 T01641043  RH  024%=      5-min Rain = 0
KQU1 202230Z 19008KT 16/M04 A3005 RMK A01 T01631042  RH  024%=      5-min Rain = 0
KQU1 202231Z 19008G13KT 16/M04 A3005 RMK A01 T01631041  RH  024%=      5-min Rain = 0
KQU1 202232Z 20010KT 16/M04 A3005 RMK A01 T01631041  RH  024%=      5-min Rain = 0
KQU1 202233Z 19008KT 16/M04 A3005 RMK A01 T01621041  RH  024%=      5-min Rain = 0
KQU1 202234Z 19008KT 16/M04 A3005 RMK A01 T01621041  RH  025%=      5-min Rain = 0
KQU1 202235Z 19009KT 16/M04 A3005 RMK A01 T01611042  RH  024%=      5-min Rain = 0
KQU1 202236Z 19012KT 16/M04 A3005 RMK A01 T01611042  RH  025%=      5-min Rain = 0
KQU1 202237Z 20011KT 16/M04 A3005 RMK A01 T01611043  RH  024%=      5-min Rain = 0
KQU1 202238Z 18009KT 16/M04 A3005 RMK A01 T01611042  RH  025%=      5-min Rain = 0
KQU1 202239Z 17011KT 16/M04 A3005 RMK A01 T01611043  RH  024%=      5-min Rain = 0
KQU1 202240Z 17009KT 16/M04 A3005 RMK A01 T01621041  RH  025%=      5-min Rain = 0
KQU1 202241Z 17009KT 16/M04 A3005 RMK A01 T01631040  RH  024%=      5-min Rain = 0
KQU1 202242Z 17009KT 17/M04 A3005 RMK A01 T01651041  RH  024%=      5-min Rain = 0
KQU1 202243Z 17009KT 17/M04 A3005 RMK A01 T01651042  RH  024%=      5-min Rain = 0
KQU1 202244Z 16010KT 16/M04 A3005 RMK A01 T01641043  RH  024%=      5-min Rain = 0
KQU1 202245Z 17009KT 16/M04 A3005 RMK A01 T01631042  RH  024%=      5-min Rain = 0
KQU1 202246Z 17008KT 16/M04 A3005 RMK A01 T01621043  RH  024%=      5-min Rain = 0
KQU1 202247Z 17009KT 16/M04 A3005 RMK A01 T01621043  RH  024%=      5-min Rain = 0
KQU1 202248Z 17008KT 16/M04 A3005 RMK A01 T01621043  RH  024%=      5-min Rain = 0
KQU1 202249Z 18008KT 16/M04 A3005 RMK A01 T01611043  RH  024%=      5-min Rain = 0
KQU1 202250Z 18007KT 16/M04 A3005 RMK A01 T01611043  RH  024%=      5-min Rain = 0
KQU1 202251Z 18008KT 16/M04 A3005 RMK A01 T01611042  RH  024%=      5-min Rain = 0
KQU1 202252Z 18008KT 16/M04 A3005 RMK A01 T01611041  RH  025%=      5-min Rain = 0
KQU1 202253Z 19009KT 16/M04 A3005 RMK A01 T01611039  RH  025%=      5-min Rain = 0
KQU1 202254Z 18009KT 16/M04 A3005 RMK A01 T01621039  RH  025%=      5-min Rain = 0
KQU1 202255Z 18009KT 16/M04 A3005 RMK A01 T01641040  RH  024%=      5-min Rain = 0
KQU1 202256Z 18008KT 17/M04 A3005 RMK A01 T01651040  RH  024%=      5-min Rain = 0
KQU1 202257Z 18007KT 17/M04 A3005 RMK A01 T01651040  RH  024%=      5-min Rain = 0
KQU1 202258Z 18007KT 17/M04 A3005 RMK A01 T01661040  RH  024%=      5-min Rain = 0
KQU1 202259Z 18007KT 17/M04 A3005 RMK A01 T01661040  RH  024%=      5-min Rain = 0
KQU1 202300Z 18007KT 17/M04 A3005 RMK A01 T01661042  RH  024%=      5-min Rain = 0
KQU1 202301Z 18006KT 17/M04 A3005 RMK A01 T01661039  RH  024%=      5-min Rain = 0
KQU1 202302Z 18007KT 17/M04 A3005 RMK A01 T01671039  RH  024%=      5-min Rain = 0
KQU1 202303Z 19008KT 17/M04 A3005 RMK A01 T01671038  RH  024%=      5-min Rain = 0
KQU1 202304Z 19010KT 17/M04 A3004 RMK A01 T01671040  RH  024%=      5-min Rain = 0
KQU1 202305Z 19011KT 17/M04 A3004 RMK A01 T01671041  RH  024%=      5-min Rain = 0
KQU1 202306Z 19010KT 17/M04 A3004 RMK A01 T01661042  RH  024%=      5-min Rain = 0
KQU1 202307Z 19009KT 17/M04 A3004 RMK A01 T01661041  RH  024%=      5-min Rain = 0
KQU1 202308Z 19009KT 17/M04 A3004 RMK A01 T01651041  RH  024%=      5-min Rain = 0
KQU1 202309Z 19009KT 17/M04 A3004 RMK A01 T01651041  RH  024%=      5-min Rain = 0
KQU1 202310Z 19009KT 16/M04 A3004 RMK A01 T01641041  RH  024%=      5-min Rain = 0
KQU1 202311Z 18009KT 16/M04 A3004 RMK A01 T01631041  RH  024%=      5-min Rain = 0
KQU1 202312Z 18009KT 16/M04 A3004 RMK A01 T01621041  RH  025%=      5-min Rain = 0
KQU1 202313Z 18010KT 16/M04 A3004 RMK A01 T01621040  RH  025%=      5-min Rain = 0
KQU1 202314Z 17008KT 16/M04 A3004 RMK A01 T01611040  RH  025%=      5-min Rain = 0
KQU1 202315Z 17008KT 16/M04 A3004 RMK A01 T01611039  RH  025%=      5-min Rain = 0
KQU1 202316Z 17007KT 16/M04 A3004 RMK A01 T01611037  RH  025%=      5-min Rain = 0
KQU1 202317Z 17007KT 16/M04 A3004 RMK A01 T01611037  RH  025%=      5-min Rain = 0
KQU1 202318Z 18008KT 16/M04 A3004 RMK A01 T01601038  RH  025%=      5-min Rain = 0
KQU1 202319Z 17008KT 16/M04 A3004 RMK A01 T01601038  RH  026%=      5-min Rain = 0
KQU1 202320Z 18008KT 16/M04 A3004 RMK A01 T01581038  RH  026%=      5-min Rain = 0
KQU1 202321Z 17008KT 16/M04 A3004 RMK A01 T01581039  RH  026%=      5-min Rain = 0
KQU1 202322Z 18009KT 16/M04 A3004 RMK A01 T01571040  RH  026%=      5-min Rain = 0
KQU1 202323Z 18009KT 16/M04 A3004 RMK A01 T01571041  RH  025%=      5-min Rain = 0
KQU1 202324Z 18009KT 16/M04 A3004 RMK A01 T01571041  RH  025%=      5-min Rain = 0
KQU1 202325Z 18009KT 16/M04 A3004 RMK A01 T01571042  RH  025%=      5-min Rain = 0
KQU1 202326Z 18009KT 16/M04 A3004 RMK A01 T01561041  RH  025%=      5-min Rain = 0
KQU1 202327Z 18008KT 16/M04 A3004 RMK A01 T01551042  RH  026%=      5-min Rain = 0
KQU1 202328Z 18009KT 15/M04 A3004 RMK A01 T01541042  RH  026%=      5-min Rain = 0
KQU1 202329Z 18009KT 15/M04 A3004 RMK A01 T01531042  RH  026%=      5-min Rain = 0
KQU1 202330Z 18010KT 15/M04 A3004 RMK A01 T01531043  RH  026%=      5-min Rain = 0
KQU1 202331Z 17009KT 15/M04 A3004 RMK A01 T01531043  RH  026%=      5-min Rain = 0
KQU1 202332Z 17009KT 15/M04 A3004 RMK A01 T01521042  RH  026%=      5-min Rain = 0
KQU1 202333Z 17009KT 15/M04 A3004 RMK A01 T01511042  RH  026%=      5-min Rain = 0
KQU1 202334Z 17009KT 15/M04 A3004 RMK A01 T01501042  RH  026%=      5-min Rain = 0
KQU1 202335Z 17008KT 15/M04 A3004 RMK A01 T01491041  RH  027%=      5-min Rain = 0
KQU1 202336Z 17008KT 15/M04 A3004 RMK A01 T01471041  RH  027%=      5-min Rain = 0
KQU1 202337Z 17007KT 15/M04 A3004 RMK A01 T01461041  RH  027%=      5-min Rain = 0
KQU1 202338Z 17007KT 14/M04 A3004 RMK A01 T01441041  RH  028%=      5-min Rain = 0
KQU1 202339Z 17007KT 14/M04 A3004 RMK A01 T01431040  RH  028%=      5-min Rain = 0
KQU1 202340Z 17007KT 14/M04 A3004 RMK A01 T01411041  RH  028%=      5-min Rain = 0
KQU1 202341Z 17007KT 14/M04 A3004 RMK A01 T01401041  RH  028%=      5-min Rain = 0
KQU1 202342Z 17007KT 14/M04 A3004 RMK A01 T01381041  RH  029%=      5-min Rain = 0
KQU1 202343Z 17007KT 14/M04 A3004 RMK A01 T01371040  RH  029%=      5-min Rain = 0
KQU1 202344Z 17008KT 14/M04 A3004 RMK A01 T01351040  RH  029%=      5-min Rain = 0
KQU1 202345Z 17008KT 13/M04 A3004 RMK A01 T01341040  RH  030%=      5-min Rain = 0
KQU1 202346Z 17008KT 13/M04 A3004 RMK A01 T01331040  RH  030%=      5-min Rain = 0
KQU1 202347Z 17008KT 13/M04 A3004 RMK A01 T01331039  RH  030%=      5-min Rain = 0
KQU1 202348Z 17008KT 13/M04 A3004 RMK A01 T01321039  RH  030%=      5-min Rain = 0
KQU1 202349Z 17009KT 13/M04 A3004 RMK A01 T01311039  RH  030%=      5-min Rain = 0
KQU1 202350Z 17008KT 13/M04 A3004 RMK A01 T01301039  RH  031%=      5-min Rain = 0
KQU1 202351Z 17008KT 13/M04 A3004 RMK A01 T01301039  RH  031%=      5-min Rain = 0
KQU1 202352Z 17008KT 13/M04 A3004 RMK A01 T01291039  RH  031%=      5-min Rain = 0
KQU1 202353Z 17008KT 13/M04 A3004 RMK A01 T01281039  RH  031%=      5-min Rain = 0
KQU1 202354Z 17008KT 13/M04 A3004 RMK A01 T01261039  RH  031%=      5-min Rain = 0
KQU1 202355Z 17008KT 13/M04 A3004 RMK A01 T01251040  RH  031%=      5-min Rain = 0
KQU1 202356Z 17008KT 12/M04 A3004 RMK A01 T01241040  RH  032%=      5-min Rain = 0
KQU1 202357Z 17008KT 12/M04 A3004 RMK A01 T01231040  RH  032%=      5-min Rain = 0
KQU1 202358Z 17008KT 12/M04 A3004 RMK A01 T01221040  RH  032%=      5-min Rain = 0
KQU1 202359Z 16008KT 12/M04 A3004 RMK A01 T01211041  RH  032%=      5-min Rain = 0
KQU1 210000Z 16009KT 12/M04 A3004 RMK A01 T01191041  RH  032%=      5-min Rain = 0
KQU1 210001Z 16008KT 12/M04 A3004 RMK A01 T01181041  RH  033%=      5-min Rain = 0
KQU1 210002Z 16008KT 12/M04 A3004 RMK A01 T01171041  RH  033%=      5-min Rain = 0
KQU1 210003Z 16008KT 12/M04 A3004 RMK A01 T01151041  RH  033%=      5-min Rain = 0
KQU1 210004Z 16008KT 11/M04 A3004 RMK A01 T01141042  RH  033%=      5-min Rain = 0
KQU1 210005Z 16008KT 11/M04 A3004 RMK A01 T01131042  RH  033%=      5-min Rain = 0
KQU1 210006Z 16008KT 11/M04 A3004 RMK A01 T01121042  RH  034%=      5-min Rain = 0
KQU1 210007Z 16008KT 11/M04 A3004 RMK A01 T01101042  RH  034%=      5-min Rain = 0
KQU1 210008Z 16008KT 11/M04 A3003 RMK A01 T01091042  RH  034%=      5-min Rain = 0
KQU1 210009Z 16008KT 11/M04 A3003 RMK A01 T01081042  RH  035%=      5-min Rain = 0
KQU1 210010Z 16007KT 11/M04 A3003 RMK A01 T01061041  RH  035%=      5-min Rain = 0
KQU1 210011Z 16007KT 10/M04 A3004 RMK A01 T01041041  RH  036%=      5-min Rain = 0
KQU1 210012Z 15007KT 10/M04 A3004 RMK A01 T01031040  RH  036%=      5-min Rain = 0
KQU1 210013Z 16007KT 10/M04 A3004 RMK A01 T01011040  RH  037%=      5-min Rain = 0
KQU1 210014Z 16008KT 10/M04 A3004 RMK A01 T01001040  RH  037%=      5-min Rain = 0
KQU1 210015Z 16008KT 10/M04 A3004 RMK A01 T00991040  RH  037%=      5-min Rain = 0
KQU1 210016Z 16008KT 10/M04 A3004 RMK A01 T00981040  RH  037%=      5-min Rain = 0
KQU1 210017Z 16008KT 10/M04 A3004 RMK A01 T00981040  RH  037%=      5-min Rain = 0
KQU1 210018Z 16008KT 10/M04 A3004 RMK A01 T00981040  RH  037%=      5-min Rain = 0
KQU1 210019Z 16008KT 10/M04 A3004 RMK A01 T00981040  RH  038%=      5-min Rain = 0
KQU1 210020Z 16008KT 10/M04 A3003 RMK A01 T00981039  RH  038%=      5-min Rain = 0
KQU1 210021Z 16009KT 10/M04 A3003 RMK A01 T00991039  RH  038%=      5-min Rain = 0
KQU1 210022Z 16008KT 10/M04 A3003 RMK A01 T00991039  RH  038%=      5-min Rain = 0
KQU1 210023Z 16008KT 10/M04 A3003 RMK A01 T00991038  RH  038%=      5-min Rain = 0
KQU1 210024Z 16008KT 10/M04 A3003 RMK A01 T01001038  RH  038%=      5-min Rain = 0
KQU1 210025Z 16008KT 10/M04 A3003 RMK A01 T01001038  RH  038%=      5-min Rain = 0
KQU1 210026Z 16008KT 10/M04 A3003 RMK A01 T01001037  RH  038%=      5-min Rain = 0
KQU1 210027Z 16008KT 10/M04 A3003 RMK A01 T00991037  RH  038%=      5-min Rain = 0
KQU1 210028Z 16008KT 10/M04 A3003 RMK A01 T00991037  RH  038%=      5-min Rain = 0
KQU1 210029Z 16008KT 10/M04 A3004 RMK A01 T00981037  RH  039%=      5-min Rain = 0
KQU1 210030Z 16008KT 10/M04 A3004 RMK A01 T00971036  RH  039%=      5-min Rain = 0
KQU1 210031Z 16008KT 10/M04 A3003 RMK A01 T00971036  RH  039%=      5-min Rain = 0
KQU1 210032Z 16008KT 10/M04 A3003 RMK A01 T00971035  RH  039%=      5-min Rain = 0
KQU1 210033Z 16008KT 10/M04 A3003 RMK A01 T00971035  RH  039%=      5-min Rain = 0
KQU1 210034Z 16009KT 10/M03 A3003 RMK A01 T00961034  RH  040%=      5-min Rain = 0
KQU1 210035Z 16009KT 10/M03 A3003 RMK A01 T00961034  RH  040%=      5-min Rain = 0
KQU1 210036Z 16009KT 10/M03 A3003 RMK A01 T00961034  RH  040%=      5-min Rain = 0
KQU1 210037Z 16008KT 10/M03 A3003 RMK A01 T00961033  RH  040%=      5-min Rain = 0
KQU1 210038Z 16009KT 10/M03 A3003 RMK A01 T00961033  RH  040%=      5-min Rain = 0
KQU1 210039Z 16008KT 10/M03 A3003 RMK A01 T00961033  RH  040%=      5-min Rain = 0
KQU1 210040Z 16008KT 10/M03 A3003 RMK A01 T00951033  RH  040%=      5-min Rain = 0
KQU1 210041Z 16009KT 10/M03 A3003 RMK A01 T00951033  RH  041%=      5-min Rain = 0
KQU1 210042Z 16009KT 10/M03 A3003 RMK A01 T00951032  RH  041%=      5-min Rain = 0
KQU1 210043Z 17009KT 10/M03 A3003 RMK A01 T00951032  RH  041%=      5-min Rain = 0
KQU1 210044Z 17009KT 10/M03 A3003 RMK A01 T00951032  RH  041%=      5-min Rain = 0
KQU1 210045Z 17009KT 09/M03 A3004 RMK A01 T00941032  RH  041%=      5-min Rain = 0
KQU1 210046Z 17009KT 10/M03 A3004 RMK A01 T00951031  RH  041%=      5-min Rain = 0
KQU1 210047Z 17008KT 09/M03 A3004 RMK A01 T00941032  RH  041%=      5-min Rain = 0
KQU1 210048Z 17008KT 09/M03 A3004 RMK A01 T00941032  RH  041%=      5-min Rain = 0
KQU1 210049Z 17008KT 09/M03 A3003 RMK A01 T00931032  RH  041%=      5-min Rain = 0
KQU1 210050Z 17008KT 09/M03 A3003 RMK A01 T00921031  RH  042%=      5-min Rain = 0
KQU1 210051Z 17008KT 09/M03 A3004 RMK A01 T00921031  RH  042%=      5-min Rain = 0
KQU1 210052Z 17009KT 09/M03 A3004 RMK A01 T00931031  RH  042%=      5-min Rain = 0
KQU1 210053Z 17009KT 09/M03 A3004 RMK A01 T00931031  RH  042%=      5-min Rain = 0
KQU1 210054Z 17008KT 09/M03 A3004 RMK A01 T00931031  RH  041%=      5-min Rain = 0
KQU1 210055Z 18008KT 09/M03 A3004 RMK A01 T00921032  RH  041%=      5-min Rain = 0
KQU1 210056Z 17008KT 09/M03 A3004 RMK A01 T00891034  RH  042%=      5-min Rain = 0
KQU1 210057Z 17008KT 09/M03 A3004 RMK A01 T00871033  RH  042%=      5-min Rain = 0
KQU1 210058Z 17008KT 09/M03 A3004 RMK A01 T00861033  RH  043%=      5-min Rain = 0
KQU1 210059Z 17007KT 09/M03 A3004 RMK A01 T00851033  RH  043%=      5-min Rain = 0
KQU1 210100Z 18007KT 08/M03 A3004 RMK A01 T00841033  RH  043%=      5-min Rain = 0
KQU1 210101Z 17008KT 08/M03 A3004 RMK A01 T00831033  RH  044%=      5-min Rain = 0
KQU1 210102Z 17008KT 08/M03 A3004 RMK A01 T00831033  RH  044%=      5-min Rain = 0
KQU1 210103Z 18008KT 08/M03 A3004 RMK A01 T00831033  RH  044%=      5-min Rain = 0
KQU1 210104Z 17008KT 08/M03 A3004 RMK A01 T00821033  RH  044%=      5-min Rain = 0
KQU1 210105Z 17008KT 08/M03 A3004 RMK A01 T00821033  RH  044%=      5-min Rain = 0
KQU1 210106Z 18008KT 08/M03 A3004 RMK A01 T00811033  RH  044%=      5-min Rain = 0
KQU1 210107Z 18008KT 08/M03 A3004 RMK A01 T00811032  RH  045%=      5-min Rain = 0
KQU1 210108Z 17008KT 08/M03 A3004 RMK A01 T00821032  RH  044%=      5-min Rain = 0
KQU1 210109Z 18009KT 08/M03 A3004 RMK A01 T00821032  RH  044%=      5-min Rain = 0
KQU1 210110Z 18008KT 08/M03 A3004 RMK A01 T00821032  RH  044%=      5-min Rain = 0
KQU1 210111Z 17008KT 08/M03 A3004 RMK A01 T00821032  RH  045%=      5-min Rain = 0
KQU1 210112Z 17009KT 08/M03 A3004 RMK A01 T00821032  RH  045%=      5-min Rain = 0
KQU1 210113Z 17009KT 08/M03 A3004 RMK A01 T00821031  RH  045%=      5-min Rain = 0
KQU1 210114Z 17009KT 08/M03 A3004 RMK A01 T00811031  RH  045%=      5-min Rain = 0
KQU1 210115Z 17009KT 08/M03 A3004 RMK A01 T00811031  RH  045%=      5-min Rain = 0
KQU1 210116Z 17009KT 08/M03 A3004 RMK A01 T00811031  RH  045%=      5-min Rain = 0
KQU1 210117Z 17009KT 08/M03 A3004 RMK A01 T00801031  RH  045%=      5-min Rain = 0
KQU1 210118Z 17009KT 08/M03 A3004 RMK A01 T00801031  RH  045%=      5-min Rain = 0
KQU1 210119Z 17009KT 08/M03 A3004 RMK A01 T00791031  RH  046%=      5-min Rain = 0
KQU1 210120Z 17009KT 08/M03 A3004 RMK A01 T00781031  RH  046%=      5-min Rain = 0
KQU1 210121Z 17010KT 08/M03 A3004 RMK A01 T00771031  RH  046%=      5-min Rain = 0
KQU1 210122Z 17009KT 08/M03 A3004 RMK A01 T00761031  RH  047%=      5-min Rain = 0
KQU1 210123Z 17010KT 08/M03 A3004 RMK A01 T00761030  RH  047%=      5-min Rain = 0
KQU1 210124Z 17009KT 08/M03 A3004 RMK A01 T00751030  RH  047%=      5-min Rain = 0
KQU1 210125Z 17009KT 08/M03 A3004 RMK A01 T00751030  RH  047%=      5-min Rain = 0
KQU1 210126Z 17009KT 07/M03 A3004 RMK A01 T00741030  RH  048%=      5-min Rain = 0
KQU1 210127Z 17009KT 07/M03 A3004 RMK A01 T00731030  RH  048%=      5-min Rain = 0
KQU1 210128Z 17008KT 07/M03 A3004 RMK A01 T00721029  RH  048%=      5-min Rain = 0
KQU1 210129Z 17008KT 07/M03 A3004 RMK A01 T00721029  RH  049%=      5-min Rain = 0
KQU1 210130Z 17009KT 07/M03 A3004 RMK A01 T00721029  RH  049%=      5-min Rain = 0
KQU1 210131Z 17009KT 07/M03 A3004 RMK A01 T00721028  RH  049%=      5-min Rain = 0
KQU1 210132Z 17009KT 07/M03 A3004 RMK A01 T00731028  RH  049%=      5-min Rain = 0
KQU1 210133Z 17009KT 07/M03 A3004 RMK A01 T00731028  RH  049%=      5-min Rain = 0
KQU1 210134Z 17009KT 07/M03 A3004 RMK A01 T00731028  RH  049%=      5-min Rain = 0
KQU1 210135Z 17009KT 07/M03 A3004 RMK A01 T00731028  RH  049%=      5-min Rain = 0
KQU1 210136Z 17009KT 07/M03 A3004 RMK A01 T00731027  RH  049%=      5-min Rain = 0
KQU1 210137Z 17009KT 07/M03 A3004 RMK A01 T00731027  RH  049%=      5-min Rain = 0
KQU1 210138Z 17009KT 07/M03 A3004 RMK A01 T00731027  RH  049%=      5-min Rain = 0
KQU1 210139Z 17009KT 07/M03 A3004 RMK A01 T00731027  RH  049%=      5-min Rain = 0
KQU1 210140Z 17009KT 07/M03 A3004 RMK A01 T00721027  RH  049%=      5-min Rain = 0
KQU1 210141Z 17009KT 07/M03 A3004 RMK A01 T00711028  RH  049%=      5-min Rain = 0
KQU1 210142Z 17009KT 07/M03 A3004 RMK A01 T00701028  RH  050%=      5-min Rain = 0
KQU1 210143Z 17008KT 07/M03 A3004 RMK A01 T00681029  RH  050%=      5-min Rain = 0
KQU1 210144Z 17009KT 07/M03 A3004 RMK A01 T00661030  RH  050%=      5-min Rain = 0
KQU1 210145Z 17009KT 06/M03 A3004 RMK A01 T00641030  RH  051%=      5-min Rain = 0
KQU1 210146Z 17009KT 06/M03 A3004 RMK A01 T00621031  RH  051%=      5-min Rain = 0
KQU1 210147Z 17009KT 06/M03 A3004 RMK A01 T00611031  RH  052%=      5-min Rain = 0
KQU1 210148Z 17009KT 06/M03 A3004 RMK A01 T00601031  RH  052%=      5-min Rain = 0
KQU1 210149Z 17009KT 06/M03 A3004 RMK A01 T00581031  RH  053%=      5-min Rain = 0
KQU1 210150Z 18009KT 06/M03 A3004 RMK A01 T00581031  RH  053%=      5-min Rain = 0
KQU1 210151Z 17009KT 06/M03 A3003 RMK A01 T00571031  RH  053%=      5-min Rain = 0
KQU1 210152Z 17009KT 06/M03 A3003 RMK A01 T00571031  RH  053%=      5-min Rain = 0
KQU1 210153Z 17009KT 06/M03 A3003 RMK A01 T00571031  RH  053%=      5-min Rain = 0
KQU1 210154Z 17009KT 06/M03 A3003 RMK A01 T00571030  RH  053%=      5-min Rain = 0
KQU1 210155Z 17008KT 06/M03 A3003 RMK A01 T00571030  RH  054%=      5-min Rain = 0
KQU1 210156Z 18009KT 06/M03 A3003 RMK A01 T00571029  RH  054%=      5-min Rain = 0
KQU1 210157Z 17009KT 06/M03 A3003 RMK A01 T00581029  RH  054%=      5-min Rain = 0
KQU1 210158Z 17009KT 06/M03 A3003 RMK A01 T00571029  RH  054%=      5-min Rain = 0
KQU1 210159Z 17009KT 06/M03 A3003 RMK A01 T00571030  RH  054%=      5-min Rain = 0
KQU1 210200Z 17008KT 06/M03 A3003 RMK A01 T00571029  RH  054%=      5-min Rain = 0
KQU1 210201Z 17008KT 06/M03 A3003 RMK A01 T00571028  RH  054%=      5-min Rain = 0
KQU1 210202Z 17008KT 06/M03 A3003 RMK A01 T00571028  RH  054%=      5-min Rain = 0
KQU1 210203Z 18008KT 06/M03 A3003 RMK A01 T00571028  RH  054%=      5-min Rain = 0
KQU1 210204Z 18008KT 06/M03 A3003 RMK A01 T00571027  RH  055%=      5-min Rain = 0
KQU1 210205Z 18008KT 06/M03 A3003 RMK A01 T00571028  RH  054%=      5-min Rain = 0
KQU1 210206Z 18008KT 06/M03 A3003 RMK A01 T00571028  RH  054%=      5-min Rain = 0
KQU1 210207Z 18008KT 06/M03 A3003 RMK A01 T00561028  RH  054%=      5-min Rain = 0
KQU1 210208Z 18008KT 06/M03 A3003 RMK A01 T00561028  RH  055%=      5-min Rain = 0
KQU1 210209Z 18008KT 06/M03 A3003 RMK A01 T00561028  RH  055%=      5-min Rain = 0
KQU1 210210Z 18008KT 06/M03 A3003 RMK A01 T00571027  RH  055%=      5-min Rain = 0
KQU1 210211Z 18008KT 06/M03 A3003 RMK A01 T00581027  RH  054%=      5-min Rain = 0
KQU1 210212Z 18008KT 06/M03 A3003 RMK A01 T00581028  RH  054%=      5-min Rain = 0
KQU1 210213Z 18008KT 06/M03 A3003 RMK A01 T00571028  RH  054%=      5-min Rain = 0
KQU1 210214Z 18008KT 06/M03 A3003 RMK A01 T00571028  RH  055%=      5-min Rain = 0
KQU1 210215Z 18009KT 06/M03 A3003 RMK A01 T00561028  RH  055%=      5-min Rain = 0
KQU1 210216Z 17009KT 06/M03 A3003 RMK A01 T00561027  RH  055%=      5-min Rain = 0
KQU1 210217Z 17009KT 06/M03 A3003 RMK A01 T00561027  RH  055%=      5-min Rain = 0
KQU1 210218Z 18008KT 06/M03 A3003 RMK A01 T00561027  RH  055%=      5-min Rain = 0
KQU1 210219Z 18009KT 06/M03 A3003 RMK A01 T00561027  RH  055%=      5-min Rain = 0
KQU1 210220Z 18008KT 06/M03 A3003 RMK A01 T00551027  RH  055%=      5-min Rain = 0
KQU1 210221Z 18008KT 06/M03 A3003 RMK A01 T00551027  RH  056%=      5-min Rain = 0
KQU1 210222Z 18008KT 06/M03 A3003 RMK A01 T00551027  RH  056%=      5-min Rain = 0
KQU1 210223Z 18008KT 05/M03 A3003 RMK A01 T00541027  RH  056%=      5-min Rain = 0
KQU1 210224Z 18008KT 05/M03 A3003 RMK A01 T00541027  RH  056%=      5-min Rain = 0
KQU1 210225Z 18008KT 05/M03 A3003 RMK A01 T00541027  RH  056%=      5-min Rain = 0
KQU1 210226Z 19008KT 05/M03 A3003 RMK A01 T00541027  RH  056%=      5-min Rain = 0
KQU1 210227Z 18008KT 05/M03 A3003 RMK A01 T00541027  RH  056%=      5-min Rain = 0
KQU1 210228Z 18008KT 05/M03 A3003 RMK A01 T00541027  RH  056%=      5-min Rain = 0
KQU1 210229Z 18008KT 05/M03 A3003 RMK A01 T00541026  RH  056%=      5-min Rain = 0
KQU1 210230Z 18008KT 05/M03 A3003 RMK A01 T00541027  RH  056%=      5-min Rain = 0
KQU1 210231Z 18008KT 05/M03 A3003 RMK A01 T00541027  RH  056%=      5-min Rain = 0
KQU1 210232Z 18008KT 05/M03 A3003 RMK A01 T00541027  RH  056%=      5-min Rain = 0
KQU1 210233Z 18008KT 05/M03 A3002 RMK A01 T00541027  RH  056%=      5-min Rain = 0
KQU1 210234Z 18008KT 05/M03 A3003 RMK A01 T00531027  RH  056%=      5-min Rain = 0
KQU1 210235Z 18007KT 05/M03 A3002 RMK A01 T00531027  RH  056%=      5-min Rain = 0
KQU1 210236Z 18008KT 05/M03 A3002 RMK A01 T00521027  RH  056%=      5-min Rain = 0
KQU1 210237Z 18008KT 05/M03 A3002 RMK A01 T00521027  RH  057%=      5-min Rain = 0
KQU1 210238Z 18008KT 05/M03 A3002 RMK A01 T00511027  RH  057%=      5-min Rain = 0
KQU1 210239Z 18008KT 05/M03 A3002 RMK A01 T00511027  RH  057%=      5-min Rain = 0
KQU1 210240Z 18008KT 05/M03 A3002 RMK A01 T00511027  RH  057%=      5-min Rain = 0
KQU1 210241Z 18008KT 05/M03 A3002 RMK A01 T00511027  RH  057%=      5-min Rain = 0
KQU1 210242Z 18007KT 05/M03 A3002 RMK A01 T00511027  RH  057%=      5-min Rain = 0
KQU1 210243Z 18007KT 05/M03 A3002 RMK A01 T00511026  RH  057%=      5-min Rain = 0
KQU1 210244Z 18008KT 05/M03 A3002 RMK A01 T00511026  RH  057%=      5-min Rain = 0
KQU1 210245Z 19008KT 05/M03 A3002 RMK A01 T00511026  RH  058%=      5-min Rain = 0
KQU1 210246Z 18008KT 05/M03 A3002 RMK A01 T00511026  RH  058%=      5-min Rain = 0
KQU1 210247Z 18008KT 05/M03 A3002 RMK A01 T00511026  RH  058%=      5-min Rain = 0
KQU1 210248Z 18008KT 05/M03 A3002 RMK A01 T00511025  RH  058%=      5-min Rain = 0
KQU1 210249Z 19008KT 05/M03 A3002 RMK A01 T00511025  RH  058%=      5-min Rain = 0
KQU1 210250Z 18008KT 05/M03 A3002 RMK A01 T00511025  RH  058%=      5-min Rain = 0
KQU1 210251Z 18008KT 05/M03 A3002 RMK A01 T00511025  RH  058%=      5-min Rain = 0
KQU1 210252Z 18008KT 05/M03 A3002 RMK A01 T00511025  RH  058%=      5-min Rain = 0
KQU1 210253Z 19008KT 05/M03 A3002 RMK A01 T00501025  RH  058%=      5-min Rain = 0
KQU1 210254Z 19008KT 05/M03 A3002 RMK A01 T00501025  RH  058%=      5-min Rain = 0
KQU1 210255Z 19008KT 05/M03 A3002 RMK A01 T00511025  RH  058%=      5-min Rain = 0
KQU1 210256Z 19008KT 05/M03 A3002 RMK A01 T00511025  RH  058%=      5-min Rain = 0
KQU1 210257Z 19008KT 05/M03 A3002 RMK A01 T00501025  RH  058%=      5-min Rain = 0
KQU1 210258Z 18008KT 05/M03 A3002 RMK A01 T00501025  RH  058%=      5-min Rain = 0
KQU1 210259Z 19008KT 05/M03 A3002 RMK A01 T00501025  RH  058%=      5-min Rain = 0
KQU1 210300Z 19008KT 05/M03 A3002 RMK A01 T00501025  RH  059%=      5-min Rain = 0
KQU1 210301Z 19008KT 05/M02 A3002 RMK A01 T00501024  RH  059%=      5-min Rain = 0
KQU1 210302Z 19008KT 05/M02 A3002 RMK A01 T00501024  RH  059%=      5-min Rain = 0
KQU1 210303Z 19008KT 05/M02 A3002 RMK A01 T00501024  RH  059%=      5-min Rain = 0
KQU1 210304Z 19008KT 05/M02 A3002 RMK A01 T00501024  RH  059%=      5-min Rain = 0
KQU1 210305Z 20008KT 05/M02 A3002 RMK A01 T00501024  RH  059%=      5-min Rain = 0
KQU1 210306Z 20008KT 05/M02 A3002 RMK A01 T00501023  RH  059%=      5-min Rain = 0
KQU1 210307Z 20008KT 05/M02 A3002 RMK A01 T00501023  RH  059%=      5-min Rain = 0
KQU1 210308Z 20008KT 05/M02 A3002 RMK A01 T00511023  RH  059%=      5-min Rain = 0
KQU1 210309Z 20008KT 05/M02 A3002 RMK A01 T00511023  RH  059%=      5-min Rain = 0
KQU1 210310Z 19008KT 05/M02 A3002 RMK A01 T00511022  RH  059%=      5-min Rain = 0
KQU1 210311Z 19008KT 05/M02 A3001 RMK A01 T00511022  RH  059%=      5-min Rain = 0
KQU1 210312Z 19008KT 05/M02 A3001 RMK A01 T00511023  RH  059%=      5-min Rain = 0
KQU1 210313Z 20008KT 05/M02 A3001 RMK A01 T00501023  RH  059%=      5-min Rain = 0
KQU1 210314Z 19008KT 05/M02 A3001 RMK A01 T00501023  RH  059%=      5-min Rain = 0
KQU1 210315Z 20009KT 05/M02 A3001 RMK A01 T00501022  RH  060%=      5-min Rain = 0
KQU1 210316Z 19009KT 05/M02 A3001 RMK A01 T00501022  RH  060%=      5-min Rain = 0
KQU1 210317Z 19009KT 05/M02 A3001 RMK A01 T00501022  RH  060%=      5-min Rain = 0
KQU1 210318Z 19008KT 05/M02 A3001 RMK A01 T00501022  RH  060%=      5-min Rain = 0
KQU1 210319Z 20009KT 05/M02 A3002 RMK A01 T00501022  RH  060%=      5-min Rain = 0
KQU1 210320Z 19008KT 05/M02 A3001 RMK A01 T00501022  RH  060%=      5-min Rain = 0
KQU1 210321Z 20008KT 05/M02 A3001 RMK A01 T00501021  RH  060%=      5-min Rain = 0
KQU1 210322Z 20008KT 05/M02 A3001 RMK A01 T00501021  RH  060%=      5-min Rain = 0
KQU1 210323Z 19008KT 05/M02 A3001 RMK A01 T00511021  RH  060%=      5-min Rain = 0
KQU1 210324Z 19008KT 05/M02 A3001 RMK A01 T00511021  RH  060%=      5-min Rain = 0
KQU1 210325Z 19008KT 05/M02 A3001 RMK A01 T00511021  RH  060%=      5-min Rain = 0
KQU1 210326Z 19008KT 05/M02 A3001 RMK A01 T00511021  RH  060%=      5-min Rain = 0
KQU1 210327Z 19008KT 05/M02 A3001 RMK A01 T00511021  RH  060%=      5-min Rain = 0
KQU1 210328Z 19008KT 05/M02 A3001 RMK A01 T00501021  RH  060%=      5-min Rain = 0
KQU1 210329Z 19008KT 05/M02 A3001 RMK A01 T00511021  RH  060%=      5-min Rain = 0
KQU1 210330Z 19008KT 05/M02 A3001 RMK A01 T00511021  RH  060%=      5-min Rain = 0
KQU1 210331Z 19008KT 05/M02 A3001 RMK A01 T00501021  RH  060%=      5-min Rain = 0
KQU1 210332Z 18008KT 05/M02 A3001 RMK A01 T00501021  RH  060%=      5-min Rain = 0
KQU1 210333Z 18008KT 05/M02 A3001 RMK A01 T00491021  RH  060%=      5-min Rain = 0
KQU1 210334Z 18008KT 05/M02 A3001 RMK A01 T00491021  RH  060%=      5-min Rain = 0
KQU1 210335Z 18008KT 05/M02 A3001 RMK A01 T00481022  RH  060%=      5-min Rain = 0
KQU1 210336Z 18007KT 05/M02 A3001 RMK A01 T00481022  RH  061%=      5-min Rain = 0
KQU1 210337Z 18008KT 05/M02 A3001 RMK A01 T00481021  RH  061%=      5-min Rain = 0
KQU1 210338Z 18007KT 05/M02 A3001 RMK A01 T00471022  RH  061%=      5-min Rain = 0
KQU1 210339Z 18007KT 05/M02 A3001 RMK A01 T00461022  RH  061%=      5-min Rain = 0
KQU1 210340Z 18007KT 05/M02 A3001 RMK A01 T00461022  RH  061%=      5-min Rain = 0
KQU1 210341Z 18007KT 05/M02 A3001 RMK A01 T00451022  RH  062%=      5-min Rain = 0
KQU1 210342Z 18007KT 05/M02 A30 RMK A01 T00451022  RH  062%=      5-min Rain = 0
KQU1 210343Z 18007KT 05/M02 A30 RMK A01 T00451022  RH  062%=      5-min Rain = 0
KQU1 210344Z 18007KT 05/M02 A30 RMK A01 T00451022  RH  062%=      5-min Rain = 0
KQU1 210345Z 18007KT 05/M02 A30 RMK A01 T00451022  RH  062%=      5-min Rain = 0
KQU1 210346Z 18007KT 05/M02 A30 RMK A01 T00451022  RH  062%=      5-min Rain = 0
KQU1 210347Z 18007KT 04/M02 A30 RMK A01 T00441022  RH  062%=      5-min Rain = 0
KQU1 210348Z 18007KT 04/M02 A30 RMK A01 T00441022  RH  062%=      5-min Rain = 0
KQU1 210349Z 17007KT 04/M02 A30 RMK A01 T00431022  RH  062%=      5-min Rain = 0
KQU1 210350Z 17007KT 04/M02 A30 RMK A01 T00431022  RH  063%=      5-min Rain = 0
KQU1 210351Z 17007KT 04/M02 A30 RMK A01 T00431022  RH  063%=      5-min Rain = 0
KQU1 210352Z 17007KT 04/M02 A30 RMK A01 T00421023  RH  063%=      5-min Rain = 0
KQU1 210353Z 17007KT 04/M02 A30 RMK A01 T00411023  RH  063%=      5-min Rain = 0
KQU1 210354Z 17007KT 04/M02 A30 RMK A01 T00411023  RH  063%=      5-min Rain = 0
KQU1 210355Z 17007KT 04/M02 A30 RMK A01 T00401023  RH  064%=      5-min Rain = 0
KQU1 210356Z 17007KT 04/M02 A30 RMK A01 T00391023  RH  064%=      5-min Rain = 0
KQU1 210357Z 18008KT 04/M02 A30 RMK A01 T00391023  RH  064%=      5-min Rain = 0
KQU1 210358Z 17008KT 04/M02 A30 RMK A01 T00381023  RH  064%=      5-min Rain = 0
KQU1 210359Z 17008KT 04/M02 A2999 RMK A01 T00391022  RH  064%=      5-min Rain = 0
KQU1 210400Z 17008KT 04/M02 A2999 RMK A01 T00391022  RH  064%=      5-min Rain = 0
KQU1 210401Z 17008KT 04/M02 A2999 RMK A01 T00391022  RH  064%=      5-min Rain = 0
KQU1 210402Z 17008KT 04/M02 A2999 RMK A01 T00391023  RH  064%=      5-min Rain = 0
KQU1 210403Z 17008KT 04/M02 A2999 RMK A01 T00381023  RH  065%=      5-min Rain = 0
KQU1 210404Z 18007KT 04/M02 A2999 RMK A01 T00381023  RH  065%=      5-min Rain = 0
KQU1 210405Z 18007KT 04/M02 A2999 RMK A01 T00371023  RH  065%=      5-min Rain = 0
KQU1 210406Z 19007KT 04/M02 A2999 RMK A01 T00371023  RH  065%=      5-min Rain = 0
KQU1 210407Z 18007KT 04/M02 A2999 RMK A01 T00361023  RH  065%=      5-min Rain = 0
KQU1 210408Z 19006KT 04/M02 A2999 RMK A01 T00351024  RH  065%=      5-min Rain = 0
KQU1 210409Z 19006KT 04/M02 A2999 RMK A01 T00351024  RH  066%=      5-min Rain = 0
KQU1 210410Z 19007KT 03/M02 A2999 RMK A01 T00341024  RH  066%=      5-min Rain = 0
KQU1 210411Z 19006KT 03/M02 A2999 RMK A01 T00341023  RH  066%=      5-min Rain = 0
KQU1 210412Z 19006KT 03/M02 A2999 RMK A01 T00341023  RH  066%=      5-min Rain = 0
KQU1 210413Z 20006KT 03/M02 A2999 RMK A01 T00341023  RH  066%=      5-min Rain = 0
KQU1 210414Z 19006KT 03/M02 A2999 RMK A01 T00341023  RH  066%=      5-min Rain = 0
KQU1 210415Z 20006KT 03/M02 A2999 RMK A01 T00341022  RH  067%=      5-min Rain = 0
KQU1 210416Z 20006KT 03/M02 A2999 RMK A01 T00341023  RH  066%=      5-min Rain = 0
KQU1 210417Z 20006KT 03/M02 A2999 RMK A01 T00331023  RH  066%=      5-min Rain = 0
KQU1 210418Z 20006KT 03/M02 A2999 RMK A01 T00331023  RH  066%=      5-min Rain = 0
KQU1 210419Z 20007KT 03/M02 A2999 RMK A01 T00331023  RH  067%=      5-min Rain = 0
KQU1 210420Z 20007KT 03/M02 A2999 RMK A01 T00321024  RH  067%=      5-min Rain = 0
KQU1 210421Z 20007KT 03/M02 A2999 RMK A01 T00321023  RH  067%=      5-min Rain = 0
KQU1 210422Z 20007KT 03/M02 A2999 RMK A01 T00321023  RH  067%=      5-min Rain = 0
KQU1 210423Z 20007KT 03/M02 A2999 RMK A01 T00321022  RH  067%=      5-min Rain = 0
KQU1 210424Z 20008KT 03/M02 A2999 RMK A01 T00331022  RH  067%=      5-min Rain = 0
KQU1 210425Z 20007KT 03/M02 A2999 RMK A01 T00331022  RH  067%=      5-min Rain = 0
KQU1 210426Z 20007KT 03/M02 A2999 RMK A01 T00321023  RH  067%=      5-min Rain = 0
KQU1 210427Z 20007KT 03/M02 A2999 RMK A01 T00321022  RH  067%=      5-min Rain = 0
KQU1 210428Z 20007KT 03/M02 A2999 RMK A01 T00321022  RH  067%=      5-min Rain = 0
KQU1 210429Z 20007KT 03/M02 A2999 RMK A01 T00321022  RH  067%=      5-min Rain = 0
KQU1 210430Z 20008KT 03/M02 A2999 RMK A01 T00321022  RH  068%=      5-min Rain = 0
KQU1 210431Z 20008KT 03/M02 A2999 RMK A01 T00331022  RH  068%=      5-min Rain = 0
KQU1 210432Z 20008KT 03/M02 A2999 RMK A01 T00331021  RH  068%=      5-min Rain = 0
KQU1 210433Z 20008KT 03/M02 A2999 RMK A01 T00331021  RH  067%=      5-min Rain = 0
KQU1 210434Z 20008KT 03/M02 A2999 RMK A01 T00331022  RH  067%=      5-min Rain = 0
KQU1 210435Z 20008KT 03/M02 A2999 RMK A01 T00331021  RH  068%=      5-min Rain = 0
KQU1 210436Z 20008KT 03/M02 A2999 RMK A01 T00341021  RH  067%=      5-min Rain = 0
KQU1 210437Z 20008KT 03/M02 A2999 RMK A01 T00341021  RH  067%=      5-min Rain = 0
KQU1 210438Z 20008KT 03/M02 A2999 RMK A01 T00341020  RH  067%=      5-min Rain = 0
KQU1 210439Z 20009KT 04/M02 A2999 RMK A01 T00351021  RH  067%=      5-min Rain = 0
KQU1 210440Z 20008KT 04/M02 A2999 RMK A01 T00351020  RH  067%=      5-min Rain = 0
KQU1 210441Z 20008KT 04/M02 A2999 RMK A01 T00361020  RH  067%=      5-min Rain = 0
KQU1 210442Z 20008KT 04/M02 A2999 RMK A01 T00361020  RH  067%=      5-min Rain = 0
KQU1 210443Z 20008KT 04/M02 A2999 RMK A01 T00361021  RH  066%=      5-min Rain = 0
KQU1 210444Z 20008KT 04/M02 A2999 RMK A01 T00351021  RH  067%=      5-min Rain = 0
KQU1 210445Z 20008KT 04/M02 A2999 RMK A01 T00361021  RH  067%=      5-min Rain = 0
KQU1 210446Z 20008KT 04/M02 A2999 RMK A01 T00361021  RH  067%=      5-min Rain = 0
KQU1 210447Z 21009KT 04/M02 A2999 RMK A01 T00351021  RH  067%=      5-min Rain = 0
KQU1 210448Z 20009KT 04/M02 A2999 RMK A01 T00351021  RH  067%=      5-min Rain = 0
KQU1 210449Z 20009KT 04/M02 A2999 RMK A01 T00351021  RH  067%=      5-min Rain = 0
KQU1 210450Z 20009KT 04/M02 A2999 RMK A01 T00351020  RH  067%=      5-min Rain = 0
KQU1 210451Z 20009KT 04/M02 A2999 RMK A01 T00361020  RH  067%=      5-min Rain = 0
KQU1 210452Z 20009KT 04/M02 A2999 RMK A01 T00361020  RH  067%=      5-min Rain = 0
KQU1 210453Z 20009KT 04/M02 A2999 RMK A01 T00361020  RH  066%=      5-min Rain = 0
KQU1 210454Z 20009KT 04/M02 A2999 RMK A01 T00361021  RH  066%=      5-min Rain = 0
KQU1 210455Z 20008KT 04/M02 A2999 RMK A01 T00361021  RH  066%=      5-min Rain = 0
KQU1 210456Z 20008KT 04/M02 A2999 RMK A01 T00361021  RH  066%=      5-min Rain = 0
KQU1 210457Z 20008KT 04/M02 A2999 RMK A01 T00351022  RH  066%=      5-min Rain = 0
KQU1 210458Z 20008KT 04/M02 A2999 RMK A01 T00351022  RH  066%=      5-min Rain = 0
KQU1 210459Z 20008KT 03/M02 A2999 RMK A01 T00341022  RH  067%=      5-min Rain = 0
KQU1 210500Z 20008KT 03/M02 A2999 RMK A01 T00341022  RH  067%=      5-min Rain = 0
KQU1 210501Z 20008KT 03/M02 A2999 RMK A01 T00341023  RH  067%=      5-min Rain = 0
KQU1 210502Z 21007KT 03/M02 A30 RMK A01 T00331023  RH  067%=      5-min Rain = 0
KQU1 210503Z 20007KT 03/M02 A30 RMK A01 T00321024  RH  067%=      5-min Rain = 0
KQU1 210504Z 20007KT 03/M03 A30 RMK A01 T00311025  RH  067%=      5-min Rain = 0
KQU1 210505Z 20007KT 03/M03 A30 RMK A01 T00291026  RH  067%=      5-min Rain = 0
KQU1 210506Z 21007KT 03/M03 A30 RMK A01 T00271027  RH  067%=      5-min Rain = 0
KQU1 210507Z 21007KT 03/M03 A30 RMK A01 T00261028  RH  068%=      5-min Rain = 0
KQU1 210508Z 22007KT 02/M03 A30 RMK A01 T00241028  RH  068%=      5-min Rain = 0
KQU1 210509Z 21007KT 02/M03 A30 RMK A01 T00231028  RH  069%=      5-min Rain = 0
KQU1 210510Z 21008KT 02/M03 A30 RMK A01 T00231029  RH  069%=      5-min Rain = 0
KQU1 210511Z 21009KT 02/M03 A30 RMK A01 T00221029  RH  069%=      5-min Rain = 0
KQU1 210512Z 20008KT 02/M03 A30 RMK A01 T00221030  RH  068%=      5-min Rain = 0
KQU1 210513Z 21009KT 02/M03 A30 RMK A01 T00201031  RH  069%=      5-min Rain = 0
KQU1 210514Z 21010KT 02/M03 A30 RMK A01 T00201030  RH  069%=      5-min Rain = 0
KQU1 210515Z 21009KT 02/M03 A30 RMK A01 T00211030  RH  069%=      5-min Rain = 0
KQU1 210516Z 21010KT 02/M03 A30 RMK A01 T00231029  RH  069%=      5-min Rain = 0
KQU1 210517Z 20010KT 02/M03 A30 RMK A01 T00241029  RH  068%=      5-min Rain = 0
KQU1 210518Z 21010KT 03/M03 A2999 RMK A01 T00251029  RH  068%=      5-min Rain = 0
KQU1 210519Z 21010KT 03/M03 A2999 RMK A01 T00261030  RH  067%=      5-min Rain = 0
KQU1 210520Z 21010KT 03/M03 A2999 RMK A01 T00271030  RH  067%=      5-min Rain = 0
KQU1 210521Z 21010KT 03/M03 A30 RMK A01 T00281029  RH  066%=      5-min Rain = 0
KQU1 210522Z 21010KT 03/M03 A30 RMK A01 T00301028  RH  065%=      5-min Rain = 0
KQU1 210523Z 21010KT 03/M03 A30 RMK A01 T00341027  RH  064%=      5-min Rain = 0
KQU1 210524Z 21010KT 04/M03 A30 RMK A01 T00391026  RH  063%=      5-min Rain = 0
KQU1 210525Z 21010KT 04/M03 A30 RMK A01 T00431026  RH  061%=      5-min Rain = 0
KQU1 210526Z 21010KT 05/M03 A30 RMK A01 T00461027  RH  059%=      5-min Rain = 0
KQU1 210527Z 21009KT 05/M03 A2999 RMK A01 T00481028  RH  058%=      5-min Rain = 0
KQU1 210528Z 21009KT 05/M03 A2999 RMK A01 T00491028  RH  057%=      5-min Rain = 0
KQU1 210529Z 21009KT 05/M03 A2999 RMK A01 T00501028  RH  057%=      5-min Rain = 0
KQU1 210530Z 21010KT 05/M03 A2999 RMK A01 T00511029  RH  056%=      5-min Rain = 0
KQU1 210531Z 21009KT 05/M03 A2999 RMK A01 T00521029  RH  056%=      5-min Rain = 0
KQU1 210532Z 21008KT 05/M03 A2999 RMK A01 T00531029  RH  055%=      5-min Rain = 0
KQU1 210533Z 21008KT 05/M03 A2999 RMK A01 T00541029  RH  055%=      5-min Rain = 0
KQU1 210534Z 21009KT 06/M03 A2999 RMK A01 T00551029  RH  055%=      5-min Rain = 0
KQU1 210535Z 21009KT 06/M03 A2999 RMK A01 T00561030  RH  054%=      5-min Rain = 0
KQU1 210536Z 21009KT 06/M03 A2999 RMK A01 T00561030  RH  054%=      5-min Rain = 0
KQU1 210537Z 21009KT 06/M03 A2999 RMK A01 T00571030  RH  054%=      5-min Rain = 0
KQU1 210538Z 21009KT 06/M03 A2999 RMK A01 T00571031  RH  053%=      5-min Rain = 0
KQU1 210539Z 21010KT 06/M03 A2999 RMK A01 T00581031  RH  053%=      5-min Rain = 0
KQU1 210540Z 22009KT 06/M03 A2999 RMK A01 T00591030  RH  053%=      5-min Rain = 0
KQU1 210541Z 21009KT 06/M03 A2999 RMK A01 T00601030  RH  052%=      5-min Rain = 0
KQU1 210542Z 21009KT 06/M03 A2999 RMK A01 T00611031  RH  052%=      5-min Rain = 0
KQU1 210543Z 21010KT 06/M03 A2999 RMK A01 T00621031  RH  051%=      5-min Rain = 0
KQU1 210544Z 21010KT 06/M03 A2999 RMK A01 T00631031  RH  051%=      5-min Rain = 0
KQU1 210545Z 21010KT 06/M03 A2999 RMK A01 T00641031  RH  051%=      5-min Rain = 0
KQU1 210546Z 20010KT 07/M03 A2999 RMK A01 T00661031  RH  050%=      5-min Rain = 0
KQU1 210547Z 20010KT 07/M03 A2999 RMK A01 T00661031  RH  050%=      5-min Rain = 0
KQU1 210548Z 20010KT 07/M03 A2999 RMK A01 T00671031  RH  050%=      5-min Rain = 0
KQU1 210549Z 20009KT 07/M03 A2999 RMK A01 T00661032  RH  050%=      5-min Rain = 0
KQU1 210550Z 20009KT 07/M03 A2999 RMK A01 T00651032  RH  050%=      5-min Rain = 0
KQU1 210551Z 20009KT 06/M03 A2999 RMK A01 T00641032  RH  050%=      5-min Rain = 0
KQU1 210552Z 20009KT 06/M03 A2999 RMK A01 T00631032  RH  051%=      5-min Rain = 0
KQU1 210553Z 20008KT 06/M03 A2999 RMK A01 T00621032  RH  051%=      5-min Rain = 0
KQU1 210554Z 19006KT 06/M04 A2999 RMK A01 T00591035  RH  051%=      5-min Rain = 0
KQU1 210555Z 17005KT 05/M04 A2999 RMK A01 T00541039  RH  051%=      5-min Rain = 0
KQU1 210556Z 17006KT 05/M04 A2999 RMK A01 T00481040  RH  053%=      5-min Rain = 0
KQU1 210557Z 18006KT 04/M04 A2999 RMK A01 T00431039  RH  055%=      5-min Rain = 0
KQU1 210558Z 18006KT 04/M04 A2999 RMK A01 T00411035  RH  058%=      5-min Rain = 0
KQU1 210559Z 18007KT 04/M03 A2999 RMK A01 T00401033  RH  059%=      5-min Rain = 0

Page generated in 0.1212 seconds.